GFSMA_700_temp_051.txt.gz
Temp
1 1 1 1 1 1 1 1 0 1 1 1 1 1 1 0 1 0 1 0 0 0 1 1 1 0 0 -0 -0 -0 0 0 0 0 1 1 1 1 1 1 1 0 0
1 1 1 1 1 1 0 0 0 0 1 1 0 1 0 0 0 -0 -0 0 0 0 0 0 1 0 0 0 0 0 0 -0 -0 -0 -0 0 0 0 0 1 1 1 1
1 1 1 0 0 0 0 0 0 1 0 0 0 -0 0 0 -0 -0 -0 0 1 0 0 0 0 -0 -0 -0 -0 -0 -0 -1 -1 -1 -0 -0 -0 -0 0 0 0 1 1
1 1 1 0 0 0 1 1 1 1 0 0 -0 -0 -0 -1 -1 -0 -0 -0 -1 -0 0 0 -0 -1 -0 -1 -1 -1 -1 -1 -1 -1 -1 -1 -1 -1 -1 -0 -0 -0 -0
1 0 0 0 0 1 1 1 1 0 0 -0 -0 -1 -1 -1 -0 -0 -1 -1 -0 -1 -1 -0 -1 -1 -1 -1 -1 -1 -2 -2 -2 -2 -2 -2 -2 -2 -2 -2 -2 -2 -1
1 1 1 0 0 1 1 1 1 0 0 -0 -1 -1 -1 -1 -1 -1 -1 -1 -1 -1 -1 -1 -1 -1 -1 -1 -1 -1 -2 -2 -2 -2 -3 -3 -3 -3 -3 -4 -5 -5 -4
1 1 1 1 1 1 1 1 0 0 -0 -1 -1 -1 -0 0 -1 -1 -1 -1 -1 -1 -1 -1 -1 -2 -2 -1 -1 -1 -1 -2 -3 -3 -3 -3 -4 -4 -5 -5 -6 -7 -8
1 1 1 1 0 1 1 1 0 -0 -1 -0 -1 -1 -1 -2 -3 -1 -1 -1 -2 -2 -2 -2 -2 -2 -2 -2 -2 -2 -2 -3 -4 -4 -4 -4 -5 -6 -6 -7 -8 -8 -9
2 1 1 1 1 1 1 1 0 -0 -1 -0 -1 -1 -2 -2 -3 -3 -3 -2 -2 -2 -2 -3 -2 -2 -3 -3 -4 -4 -3 -4 -5 -5 -5 -6 -6 -6 -7 -8 -9 -10 -10
1 1 1 1 1 1 1 0 0 -0 -1 -2 -1 -2 -3 -3 -3 -3 -4 -4 -3 -3 -3 -3 -3 -4 -4 -5 -4 -5 -5 -6 -6 -6 -6 -7 -7 -8 -8 -9 -10 -11 -12
1 1 1 1 1 1 1 0 0 -0 -1 -1 -2 -2 -2 -3 -3 -3 -3 -5 -5 -6 -6 -5 -4 -5 -5 -5 -5 -6 -6 -7 -7 -7 -8 -8 -9 -10 -10 -11 -12 -12 -13
2 1 1 0 0 0 -0 -0 -1 -0 -1 -1 -2 -2 -3 -4 -4 -4 -4 -5 -5 -5 -5 -6 -5 -5 -6 -6 -6 -6 -7 -8 -8 -8 -9 -10 -10 -11 -12 -13 -13 -13 -13
2 1 1 1 0 0 -0 -0 -1 -1 -1 -1 -2 -2 -3 -3 -4 -4 -5 -5 -6 -6 -6 -7 -7 -6 -6 -7 -7 -7 -8 -9 -9 -9 -11 -11 -12 -13 -13 -13 -13 -13 -13
2 1 1 1 0 0 0 -0 -1 -2 -2 -2 -2 -3 -3 -4 -4 -5 -5 -6 -7 -7 -7 -7 -8 -9 -8 -9 -9 -9 -9 -10 -10 -10 -11 -12 -13 -13 -13 -14 -14 -14 -14
1 1 1 1 1 1 -0 -1 -1 -2 -2 -2 -2 -2 -3 -4 -5 -6 -6 -7 -7 -7 -7 -8 -10 -10 -10 -11 -10 -9 -10 -11 -11 -12 -12 -13 -14 -14 -14 -14 -14 -14 -14
2 1 1 1 0 -0 -1 -1 -2 -2 -2 -1 -3 -2 -4 -4 -5 -7 -7 -8 -9 -8 -8 -11 -11 -11 -11 -12 -12 -11 -12 -12 -12 -13 -13 -14 -14 -14 -14 -14 -14 -14 -14
2 1 1 0 -0 -0 -1 -1 -2 -2 -3 -2 -3 -4 -4 -5 -6 -7 -8 -9 -9 -10 -9 -9 -11 -12 -13 -13 -14 -14 -13 -13 -13 -14 -14 -14 -14 -14 -14 -14 -14 -14 -14
1 1 0 -0 -1 -1 -1 -1 -2 -2 -3 -3 -5 -4 -5 -6 -7 -8 -8 -9 -10 -10 -10 -10 -10 -11 -13 -14 -15 -15 -15 -14 -13 -14 -15 -15 -15 -15 -15 -15 -15 -15 -15
1 1 -0 -1 -0 -0 -2 -2 -2 -2 -2 -4 -5 -5 -6 -6 -7 -8 -9 -10 -10 -11 -11 -12 -12 -13 -14 -15 -15 -16 -16 -16 -15 -14 -15 -15 -15 -15 -15 -15 -15 -15 -15
1 0 -0 -1 -2 -2 -2 -3 -2 -3 -4 -5 -5 -6 -6 -7 -8 -9 -10 -10 -11 -12 -12 -12 -13 -13 -15 -15 -15 -16 -16 -17 -17 -16 -15 -15 -15 -15 -15 -15 -15 -15 -15
0 -0 -1 -1 -1 -3 -3 -3 -4 -5 -5 -5 -6 -6 -7 -8 -8 -9 -10 -10 -11 -12 -12 -13 -13 -14 -14 -15 -15 -16 -16 -16 -17 -16 -16 -16 -16 -16 -16 -16 -16 -16 -16
-0 -0 -1 -1 -2 -3 -3 -4 -4 -5 -5 -6 -7 -7 -8 -9 -9 -10 -10 -11 -11 -12 -12 -13 -13 -14 -14 -15 -15 -16 -17 -17 -17 -17 -17 -16 -16 -16 -16 -16 -16 -16 -16
-0 -1 -1 -2 -3 -4 -4 -5 -5 -5 -6 -7 -8 -8 -9 -10 -10 -11 -11 -11 -11 -12 -13 -13 -13 -14 -14 -15 -16 -16 -17 -17 -17 -17 -17 -17 -16 -16 -16 -16 -16 -16 -16
-1 -1 -2 -3 -4 -4 -5 -5 -5 -6 -7 -7 -8 -9 -10 -10 -11 -11 -11 -12 -13 -13 -13 -14 -14 -14 -15 -15 -16 -17 -17 -17 -17 -17 -17 -17 -17 -16 -16 -16 -16 -16 -17
-2 -3 -3 -4 -4 -5 -5 -6 -7 -7 -8 -9 -9 -10 -10 -11 -11 -12 -13 -13 -13 -14 -14 -15 -15 -15 -15 -15 -16 -17 -17 -17 -17 -17 -17 -18 -17 -17 -17 -17 -17 -17 -17
-3 -4 -5 -5 -6 -7 -7 -8 -8 -9 -9 -9 -10 -10 -11 -11 -12 -12 -13 -13 -15 -15 -15 -16 -16 -16 -16 -16 -16 -17 -17 -17 -17 -17 -18 -19 -18 -17 -17 -17 -17 -17 -17

GFSMA_700_temp_057.txt.gz
Temp
-1 -1 1 1 1 1 1 1 1 2 2 1 1 0 0 1 1 1 1 1 1 1 1 0 0 1 1 1 1 1 1 1 1 1 1 1 1 1 1 1 1 1 1
-1 0 1 1 1 1 1 1 1 1 1 1 1 0 1 0 1 1 1 1 0 0 -0 0 0 1 0 1 0 0 0 0 0 0 0 0 0 1 1 1 1 1 1
-1 0 0 1 1 1 2 2 1 1 1 1 0 1 1 1 0 1 1 -0 -0 0 -0 -0 0 0 0 -0 -0 -0 -0 -0 -0 -0 -0 -0 0 0 0 0 0 -0 0
-0 0 0 1 1 1 1 1 1 1 1 1 1 0 1 1 0 0 -0 0 -0 -0 -0 -0 -0 -0 -1 -1 -1 -1 -1 -1 -1 -1 -0 -0 -0 -0 -0 -0 -0 -0 -0
0 0 1 1 1 1 1 1 0 0 1 1 1 1 1 1 0 0 0 -0 -0 -0 -0 -0 -0 -1 -1 -1 -1 -1 -1 -1 -1 -1 -1 -1 -1 -1 -1 -1 -1 -1 -1
0 1 1 1 1 0 1 1 0 0 1 1 1 1 1 -0 0 0 0 -0 -1 -1 -1 -1 -1 -1 -1 -1 -1 -1 -2 -2 -2 -2 -1 -2 -2 -2 -2 -2 -3 -3 -3
1 1 1 1 1 0 1 1 1 1 1 1 0 0 0 0 0 -0 -1 -1 -1 -0 -1 -1 -1 -1 -1 -1 -1 -1 -2 -2 -2 -2 -2 -2 -3 -3 -4 -4 -4 -4 -5
1 2 1 1 1 1 1 1 1 1 1 1 1 0 -0 -0 0 -0 -1 -2 -2 -2 -2 -2 -1 -1 -1 -1 -1 -2 -2 -2 -3 -3 -3 -3 -4 -4 -5 -5 -6 -6 -6
2 1 1 1 2 1 1 2 1 0 0 0 1 0 0 0 -0 -1 -2 -3 -4 -3 -3 -2 -2 -2 -1 -2 -2 -2 -3 -3 -3 -4 -4 -5 -5 -6 -6 -6 -6 -7 -7
2 1 1 1 2 1 1 1 1 0 -0 -0 -0 -0 -0 -1 -2 -2 -2 -3 -3 -3 -3 -3 -3 -2 -3 -3 -3 -4 -4 -4 -4 -5 -6 -6 -6 -7 -7 -7 -7 -7 -8
2 2 2 1 1 1 1 1 0 0 -0 0 -0 -1 -1 -1 -1 -2 -2 -2 -3 -3 -3 -3 -3 -3 -4 -4 -4 -5 -5 -5 -6 -7 -7 -7 -8 -8 -8 -8 -8 -8 -9
2 2 2 2 1 1 1 0 0 -0 -0 -0 -0 -0 -1 -1 -1 -2 -2 -2 -3 -3 -3 -4 -4 -4 -5 -6 -6 -6 -6 -7 -7 -7 -7 -8 -8 -9 -9 -9 -9 -10 -10
2 2 2 1 1 1 1 -0 -1 -0 -0 -0 0 -1 -1 -1 -1 -2 -2 -3 -3 -4 -4 -4 -5 -5 -6 -6 -6 -7 -7 -8 -8 -8 -8 -9 -9 -10 -10 -10 -11 -11 -11
2 2 2 1 1 1 0 1 0 1 -0 -1 -1 -1 -1 -1 -2 -2 -3 -3 -3 -4 -4 -5 -6 -6 -7 -8 -7 -8 -8 -9 -9 -9 -9 -9 -10 -10 -11 -11 -12 -12 -12
2 2 2 2 0 0 1 1 1 0 -0 -1 -0 -1 -1 -2 -2 -3 -4 -4 -4 -4 -4 -5 -6 -7 -8 -8 -8 -9 -10 -10 -9 -9 -10 -10 -11 -12 -12 -12 -12 -13 -14
2 2 2 1 1 1 1 1 1 -0 -1 -1 -2 -2 -2 -2 -2 -4 -4 -4 -4 -4 -4 -5 -6 -7 -9 -9 -10 -10 -10 -10 -10 -11 -11 -12 -12 -13 -13 -13 -14 -14 -14
2 2 2 2 2 1 1 0 0 -1 -1 -2 -2 -1 -3 -3 -3 -4 -4 -4 -5 -5 -6 -6 -7 -8 -9 -10 -11 -11 -12 -12 -12 -12 -13 -13 -13 -13 -14 -14 -15 -15 -15
3 2 2 2 2 1 1 -0 -1 -3 -2 -2 -2 -2 -3 -4 -3 -5 -5 -6 -6 -7 -8 -7 -8 -9 -10 -10 -11 -12 -12 -12 -13 -13 -14 -14 -13 -13 -14 -15 -15 -15 -15
2 2 2 2 1 1 -0 -1 -2 -2 -2 -2 -3 -4 -4 -4 -4 -5 -6 -6 -7 -7 -8 -8 -8 -9 -10 -11 -12 -12 -12 -13 -14 -14 -14 -14 -14 -15 -15 -15 -16 -16 -16
2 2 1 1 1 0 -1 -2 -2 -2 -3 -3 -4 -4 -5 -5 -5 -6 -6 -7 -7 -8 -9 -9 -9 -9 -10 -11 -12 -12 -13 -13 -14 -14 -14 -14 -15 -16 -15 -16 -16 -16 -16
2 2 1 1 1 0 -0 -1 -2 -2 -3 -3 -5 -5 -5 -6 -6 -6 -7 -7 -8 -9 -9 -10 -10 -11 -11 -11 -12 -13 -13 -14 -14 -15 -14 -15 -16 -16 -16 -16 -17 -17 -16
2 2 1 1 0 -0 -1 -1 -2 -3 -3 -4 -5 -5 -5 -6 -6 -7 -8 -8 -9 -9 -10 -10 -10 -11 -11 -12 -12 -13 -14 -14 -15 -15 -15 -15 -16 -16 -17 -17 -17 -17 -17
2 2 1 0 -0 -1 -1 -2 -2 -3 -4 -5 -5 -5 -6 -7 -7 -7 -8 -9 -9 -10 -10 -11 -11 -11 -12 -12 -14 -14 -15 -15 -15 -15 -16 -16 -16 -16 -17 -17 -17 -17 -17
1 1 1 0 -1 -1 -2 -2 -3 -4 -5 -5 -6 -6 -7 -8 -8 -8 -9 -9 -10 -10 -11 -11 -12 -12 -13 -13 -15 -15 -15 -15 -15 -16 -16 -16 -16 -17 -17 -17 -17 -17 -17
1 1 0 -0 -1 -2 -2 -3 -4 -5 -6 -6 -7 -7 -8 -9 -9 -9 -10 -10 -10 -10 -10 -10 -11 -12 -13 -14 -15 -15 -15 -16 -16 -16 -16 -17 -16 -17 -17 -17 -17 -17 -18
0 -0 -1 -1 -2 -3 -4 -4 -5 -6 -6 -7 -8 -8 -9 -9 -10 -10 -10 -10 -10 -10 -10 -10 -11 -11 -13 -14 -15 -16 -16 -16 -16 -16 -16 -16 -17 -17 -17 -17 -17 -17 -18

GFSMA_700_temp_060.txt.gz
Temp
0 -1 0 1 1 2 2 2 1 1 1 2 2 1 1 1 1 1 1 1 2 2 2 2 1 1 1 1 1 1 1 1 1 1 1 1 1 1 1 1 1 1 1
-1 -1 0 1 2 2 1 1 1 1 1 1 1 1 1 0 1 1 1 1 1 1 1 1 1 0 0 0 0 0 0 0 0 0 0 0 0 0 1 1 1 1 1
-1 -0 1 1 1 1 1 1 1 1 1 1 1 1 0 1 1 0 0 1 1 1 1 1 0 1 0 0 0 -0 -0 -0 -0 -0 -0 -0 -0 0 0 0 0 0 0
-1 0 0 1 1 1 1 1 1 1 1 1 1 1 1 0 1 0 1 1 1 0 0 0 0 0 0 0 -0 -1 -1 -0 -1 -1 -1 -1 -0 -0 -0 -0 -0 -0 -0
-1 0 0 1 1 1 1 1 1 1 1 1 1 1 1 0 0 0 1 1 0 0 0 0 0 0 0 -0 -1 -1 -1 -1 -1 -1 -1 -1 -1 -1 -1 -1 -1 -1 -1
0 1 1 0 1 1 1 1 1 1 1 1 1 1 1 1 1 1 0 -0 -0 -0 0 -0 -0 -1 -1 -1 -1 -1 -2 -2 -2 -2 -2 -2 -2 -2 -2 -2 -2 -2 -3
-0 0 1 1 2 1 1 0 1 1 0 0 1 1 1 1 1 0 0 -0 -0 -1 -0 -0 -1 -1 -2 -2 -1 -2 -2 -2 -2 -2 -3 -3 -3 -3 -3 -3 -3 -4 -5
0 1 1 1 1 1 1 1 1 0 -0 -0 0 1 1 1 1 0 -0 -1 -1 -1 -1 -1 -1 -1 -1 -1 -1 -2 -2 -2 -2 -3 -3 -3 -3 -3 -4 -5 -5 -5 -5
1 1 1 1 1 1 1 1 1 0 -0 -0 0 -0 -0 0 -0 -1 -1 -1 -2 -2 -3 -3 -2 -2 -2 -2 -2 -2 -2 -2 -3 -3 -4 -4 -5 -5 -5 -6 -6 -6 -6
1 1 1 1 1 1 1 1 1 1 0 0 0 -1 -1 -1 -1 -1 -1 -2 -2 -2 -2 -3 -3 -3 -2 -3 -3 -3 -3 -3 -4 -4 -5 -5 -6 -6 -7 -7 -7 -7 -7
2 1 2 1 2 2 1 1 1 1 0 -0 -1 -0 -0 -0 -1 -1 -1 -1 -2 -2 -2 -3 -4 -4 -4 -3 -3 -4 -4 -4 -5 -6 -7 -7 -8 -8 -8 -8 -8 -8 -8
2 2 2 2 1 1 1 1 0 0 0 -1 -1 -0 -1 -1 -0 -1 -2 -1 -2 -2 -3 -4 -4 -4 -4 -4 -5 -4 -5 -5 -6 -7 -8 -8 -8 -8 -9 -9 -9 -9 -9
3 3 2 2 2 1 1 1 0 0 0 0 -0 -0 -0 -1 -1 -1 -2 -2 -2 -3 -3 -3 -4 -4 -5 -5 -6 -6 -7 -7 -8 -8 -8 -8 -9 -9 -10 -10 -10 -10 -10
2 2 2 2 1 0 1 0 1 1 0 -0 -0 -0 -1 -1 -2 -2 -2 -3 -3 -3 -4 -4 -4 -5 -5 -5 -6 -6 -7 -8 -8 -9 -9 -10 -10 -11 -11 -11 -11 -12 -12
2 1 2 2 2 1 0 1 1 0 0 0 -0 -1 -1 -2 -3 -3 -4 -3 -3 -4 -3 -3 -4 -5 -5 -6 -7 -7 -8 -8 -9 -10 -10 -11 -11 -12 -12 -12 -12 -13 -14
1 2 2 1 1 1 1 1 0 0 0 0 -1 -1 -2 -2 -2 -3 -3 -3 -4 -4 -3 -4 -5 -6 -7 -7 -8 -8 -9 -9 -10 -11 -11 -11 -12 -12 -13 -13 -13 -14 -15
1 2 2 1 1 1 1 1 1 1 0 -1 -1 -2 -2 -3 -3 -4 -4 -4 -4 -4 -5 -5 -5 -6 -6 -7 -8 -9 -9 -10 -10 -11 -13 -13 -13 -13 -14 -14 -14 -14 -15
2 2 2 2 2 2 2 1 1 -0 -1 -1 -2 -2 -3 -3 -4 -4 -4 -4 -4 -5 -5 -5 -5 -6 -7 -8 -8 -9 -10 -11 -11 -12 -13 -13 -13 -14 -13 -14 -14 -15 -15
3 2 2 2 2 2 1 1 0 -1 -1 -1 -2 -2 -2 -3 -4 -4 -5 -6 -5 -5 -5 -5 -5 -6 -7 -9 -9 -10 -10 -11 -11 -12 -13 -13 -14 -14 -14 -15 -15 -15 -15
3 2 2 2 2 1 1 0 0 -1 -2 -3 -3 -3 -3 -4 -4 -5 -6 -5 -5 -5 -6 -7 -7 -8 -8 -9 -10 -10 -11 -11 -12 -13 -14 -14 -14 -14 -15 -15 -15 -16 -17
2 2 2 2 1 1 1 1 0 -1 -2 -3 -3 -3 -4 -3 -5 -5 -5 -6 -6 -7 -7 -8 -8 -8 -9 -10 -10 -11 -11 -12 -12 -13 -14 -14 -15 -14 -14 -15 -16 -17 -16
2 2 2 1 1 1 1 -0 -1 -2 -2 -3 -3 -4 -4 -4 -5 -6 -6 -7 -8 -8 -8 -9 -9 -9 -10 -10 -10 -11 -11 -12 -13 -13 -15 -15 -15 -15 -15 -15 -16 -17 -16
2 2 1 1 1 1 -0 -1 -2 -2 -3 -3 -4 -5 -5 -5 -6 -7 -7 -8 -8 -9 -9 -9 -10 -10 -10 -11 -11 -11 -12 -12 -13 -14 -15 -15 -15 -15 -16 -16 -17 -17 -17
2 2 2 1 0 -0 -1 -2 -2 -3 -4 -4 -4 -5 -6 -6 -7 -7 -8 -8 -9 -9 -10 -10 -11 -11 -11 -11 -12 -12 -12 -13 -14 -14 -15 -16 -16 -16 -17 -17 -17 -17 -17
2 2 1 0 -0 -1 -2 -2 -3 -3 -4 -4 -5 -6 -7 -7 -8 -8 -8 -9 -10 -10 -10 -10 -11 -11 -11 -12 -13 -13 -13 -14 -14 -14 -15 -17 -16 -16 -17 -17 -17 -17 -17
2 1 0 -1 -1 -2 -2 -3 -3 -4 -5 -6 -6 -7 -8 -8 -9 -9 -9 -10 -10 -10 -10 -10 -11 -11 -12 -12 -13 -14 -15 -15 -15 -15 -15 -17 -16 -17 -17 -16 -17 -17 -17

GFSMA_700_temp_063.txt.gz
Temp
2 1 2 2 2 3 2 2 2 2 2 1 1 2 2 2 2 2 2 2 2 1 2 2 2 2 2 2 2 1 1 1 1 1 1 1 1 1 1 1 1 1 2
1 1 1 1 2 2 2 2 2 1 2 2 1 2 2 1 1 1 1 1 2 2 2 2 1 1 1 1 1 1 0 0 0 0 1 1 1 1 1 1 1 1 1
1 0 -1 0 1 2 2 2 1 1 1 1 1 1 1 1 1 1 1 1 1 1 1 1 1 1 1 1 0 0 -0 -0 0 -0 0 0 0 0 -0 -0 -0 -0 0
-2 -1 -1 -1 1 2 2 1 1 1 1 1 1 1 1 1 1 1 1 1 1 1 1 1 0 0 -0 0 0 0 0 -0 -0 -0 -0 -0 -0 -0 -0 -1 -1 -1 -1
-2 -2 -1 0 1 1 1 1 1 1 0 0 0 1 1 1 1 1 1 1 0 0 0 0 -0 -0 -0 -1 -1 -1 -1 -1 -1 -0 -1 -0 -1 -1 -1 -2 -2 -2 -2
-2 -1 -0 0 1 1 1 1 1 1 1 0 0 0 0 0 1 1 1 1 1 0 0 -0 -1 -1 -0 -1 -1 -1 -2 -2 -1 -1 -1 -1 -1 -2 -2 -2 -2 -2 -2
-2 -1 -0 0 1 1 1 0 1 1 1 0 0 -0 -0 0 1 1 0 0 -0 -0 0 -0 -1 -1 -0 -1 -2 -2 -2 -2 -1 -1 -2 -2 -2 -3 -3 -3 -3 -3 -3
-2 -1 -1 0 1 1 0 1 1 1 1 0 -0 -0 0 0 0 0 0 -0 -0 -0 -1 -1 -1 -1 -1 -1 -2 -3 -3 -3 -2 -2 -2 -3 -3 -3 -3 -4 -4 -4 -4
-1 -1 -0 1 1 2 1 1 1 1 0 0 -0 -1 -0 -0 -0 -0 -1 -1 -1 -2 -1 -2 -2 -2 -2 -1 -2 -3 -3 -3 -3 -3 -3 -3 -4 -4 -4 -4 -4 -5 -5
-1 -0 1 1 1 1 1 1 0 0 0 -0 -0 -0 -0 -1 -0 -0 -0 -1 -1 -1 -1 -2 -2 -2 -3 -4 -5 -3 -4 -3 -3 -4 -4 -5 -5 -5 -5 -5 -5 -6 -6
0 1 1 1 1 1 1 1 1 1 0 -0 -0 -0 -0 0 -0 -1 -1 -0 -1 -2 -2 -2 -2 -3 -3 -6 -6 -5 -4 -4 -4 -4 -5 -5 -5 -6 -6 -6 -7 -7 -8
1 1 1 1 1 1 1 1 1 0 0 0 -0 -0 -0 -1 -0 -1 -1 -1 -1 -2 -2 -2 -3 -3 -4 -5 -6 -5 -5 -5 -4 -4 -5 -7 -7 -7 -7 -8 -8 -8 -8
2 2 1 1 1 1 1 1 1 0 0 -0 0 0 0 -1 -0 -1 -1 -1 -1 -2 -2 -3 -4 -4 -4 -5 -5 -4 -4 -5 -5 -6 -7 -8 -8 -8 -8 -8 -9 -9 -10
2 2 1 1 1 1 1 1 1 0 -0 -0 -0 -0 -1 -1 -0 -1 -1 -1 -2 -3 -2 -3 -4 -4 -4 -5 -4 -5 -5 -6 -6 -7 -7 -8 -8 -9 -10 -10 -11 -11 -12
2 2 1 1 1 1 0 0 -0 -0 -0 1 1 0 -1 -1 -1 -2 -2 -2 -3 -3 -3 -3 -4 -5 -5 -5 -5 -5 -5 -6 -7 -8 -8 -9 -9 -10 -11 -12 -13 -13 -13
1 1 1 1 1 1 0 -0 0 0 1 1 1 -0 -0 -2 -2 -2 -2 -2 -3 -4 -4 -4 -4 -4 -5 -4 -5 -5 -6 -6 -7 -8 -9 -9 -10 -11 -12 -12 -13 -13 -13
1 0 0 1 1 1 0 1 1 1 1 1 0 0 -1 -1 -2 -2 -3 -3 -3 -4 -4 -5 -5 -5 -5 -5 -5 -6 -6 -6 -7 -8 -9 -10 -10 -12 -12 -13 -13 -13 -14
1 -0 1 2 1 1 1 1 1 1 1 0 0 -1 -2 -1 -2 -2 -3 -3 -4 -5 -4 -4 -4 -5 -5 -5 -6 -6 -7 -7 -8 -9 -10 -10 -11 -12 -13 -13 -13 -14 -14
1 0 1 2 2 1 2 1 2 1 1 0 -1 -2 -1 -2 -3 -3 -4 -4 -5 -5 -5 -5 -5 -5 -5 -6 -6 -7 -8 -8 -9 -10 -10 -11 -11 -12 -13 -13 -13 -14 -14
1 1 1 1 2 2 1 1 1 1 0 -0 -0 -1 -2 -3 -3 -3 -4 -5 -5 -4 -6 -6 -5 -6 -6 -7 -8 -8 -8 -9 -9 -10 -11 -11 -12 -12 -13 -14 -14 -14 -15
2 1 2 2 2 2 1 1 1 0 0 -1 -0 -1 -1 -3 -2 -3 -4 -5 -5 -5 -6 -6 -6 -7 -8 -8 -9 -9 -9 -9 -9 -10 -10 -10 -12 -13 -14 -14 -15 -15 -15
2 2 2 2 2 1 1 1 1 0 0 -0 -1 -1 -2 -3 -3 -4 -4 -5 -5 -6 -6 -7 -7 -8 -8 -9 -9 -10 -10 -10 -9 -10 -11 -11 -12 -13 -14 -15 -15 -15 -15
2 2 2 2 2 1 1 1 0 -0 -1 -1 -2 -2 -3 -3 -4 -4 -5 -6 -6 -7 -8 -8 -8 -9 -9 -10 -10 -11 -11 -11 -11 -11 -12 -12 -12 -13 -15 -16 -16 -16 -16
2 2 2 1 1 1 1 0 -0 -1 -1 -2 -2 -3 -3 -4 -5 -6 -6 -7 -8 -9 -9 -9 -9 -10 -10 -11 -11 -11 -11 -11 -11 -12 -13 -13 -13 -14 -15 -16 -16 -16 -16
2 1 1 1 1 1 0 -0 -1 -1 -2 -2 -3 -4 -5 -5 -6 -7 -8 -8 -9 -9 -10 -10 -10 -11 -11 -11 -12 -12 -12 -12 -12 -12 -13 -14 -14 -15 -15 -16 -16 -16 -17
1 1 1 1 1 0 -0 -1 -1 -2 -3 -4 -4 -5 -6 -7 -8 -8 -9 -9 -10 -10 -10 -10 -11 -11 -11 -12 -12 -13 -13 -13 -14 -14 -14 -15 -15 -16 -16 -16 -16 -16 -17

GFSMA_700_temp_066.txt.gz
Temp
1 1 2 1 2 2 3 3 2 3 2 2 1 2 2 2 2 2 2 2 2 2 2 2 2 2 2 2 2 2 2 2 2 1 1 1 1 1 1 1 1 1 1
1 1 1 1 1 1 1 2 2 3 2 1 1 1 1 1 2 2 2 2 1 1 2 2 1 2 2 2 2 1 1 1 1 1 1 1 1 1 1 0 0 1 1
0 1 1 1 0 1 1 1 2 2 1 1 1 1 1 1 1 2 1 1 1 1 1 1 1 2 1 1 1 1 1 1 1 0 0 0 0 0 -0 -0 -0 -0 -0
-0 -0 0 0 1 1 1 1 2 1 1 1 1 1 1 1 1 1 1 1 1 1 1 1 1 1 1 0 0 0 0 -0 -0 -0 -0 -0 -0 -0 -0 -1 -0 -0 -1
-1 -1 -1 -1 -1 -1 0 1 1 1 0 0 1 1 1 1 1 1 1 1 1 1 1 0 0 0 -0 -0 -0 0 0 0 0 -0 -1 -1 -1 -1 -1 -1 -0 -1 -1
-2 -2 -2 -1 -1 -2 -1 1 1 1 0 0 0 0 0 0 1 1 1 0 0 0 -0 -0 -1 -1 -1 -1 -1 -1 -1 -1 -0 -1 -1 -1 -1 -1 -1 -1 -1 -1 -2
-2 -2 -1 -1 -2 -2 0 0 1 1 0 0 1 1 0 1 0 0 -0 -0 -0 -0 -0 -1 -1 -1 -1 -1 -1 -2 -1 -1 -1 -1 -2 -2 -2 -2 -2 -2 -2 -2 -3
-2 -2 -1 -2 -2 -1 0 1 1 0 0 0 1 0 1 1 0 -0 -0 -1 -1 -1 -1 -1 -2 -2 -2 -2 -2 -1 -1 -1 -2 -2 -2 -3 -2 -2 -2 -3 -3 -3 -3
-2 -2 -2 -1 -1 -0 0 0 0 0 0 0 -0 -0 1 1 0 -0 -1 -1 -1 -1 -2 -2 -2 -2 -2 -2 -2 -2 -2 -1 -2 -4 -4 -3 -3 -3 -4 -4 -4 -4 -4
-2 -2 -2 -1 -2 0 0 -0 0 0 0 -0 -0 -0 -0 -0 -1 -0 -0 -1 -1 -1 -1 -1 -2 -3 -2 -2 -3 -3 -2 -2 -2 -4 -4 -4 -4 -4 -4 -4 -4 -4 -4
-2 -1 -1 -1 -1 0 0 0 1 0 0 0 -0 -0 -0 -0 -1 0 -1 -1 -1 -1 -1 -2 -2 -3 -2 -3 -3 -4 -5 -6 -7 -6 -4 -4 -4 -4 -4 -5 -5 -6 -6
-1 -1 -1 -1 0 1 1 1 0 0 0 0 0 0 -0 0 1 0 -0 -1 -1 -1 -2 -2 -2 -2 -3 -3 -4 -6 -5 -4 -5 -6 -7 -7 -7 -8 -8 -8 -7 -7 -7
2 2 2 1 1 0 1 1 0 0 0 -0 0 -0 -0 0 -1 -0 -1 -0 -1 -2 -2 -2 -2 -4 -3 -4 -4 -5 -5 -5 -5 -6 -7 -7 -8 -8 -8 -8 -8 -8 -8
2 1 1 1 1 0 1 0 -0 -0 -0 0 -0 -0 -1 0 -0 -0 -1 -1 -1 -2 -2 -2 -4 -4 -4 -4 -4 -4 -5 -5 -5 -5 -6 -6 -7 -7 -8 -9 -10 -10 -10
2 1 1 0 -0 0 0 -0 -1 0 0 -0 -0 -0 -0 0 -0 -1 -1 -1 -2 -2 -2 -2 -3 -4 -4 -4 -5 -5 -5 -5 -5 -6 -6 -7 -7 -7 -8 -9 -9 -11 -12
2 1 1 1 1 1 0 0 0 0 0 -0 -0 -0 0 0 0 -1 -2 -1 -2 -3 -2 -3 -3 -3 -4 -4 -5 -5 -5 -5 -5 -5 -6 -7 -7 -8 -9 -9 -9 -10 -12
1 0 -0 -0 0 0 0 0 0 1 -0 -0 0 0 -0 -0 -1 -1 -2 -2 -3 -2 -2 -4 -3 -4 -6 -5 -5 -5 -5 -5 -6 -6 -7 -7 -8 -8 -9 -10 -10 -11 -11
0 1 0 0 0 0 0 0 1 -0 0 0 0 1 -0 -1 -1 -1 -2 -2 -3 -3 -3 -4 -4 -5 -5 -5 -5 -5 -5 -6 -6 -7 -8 -8 -9 -9 -10 -10 -11 -11 -12
1 1 1 0 0 0 0 1 1 1 1 1 1 1 0 -0 -1 -2 -2 -3 -3 -4 -5 -5 -5 -5 -5 -5 -5 -6 -6 -7 -7 -8 -8 -9 -9 -10 -10 -10 -11 -12 -12
-0 2 1 0 0 -0 1 1 1 2 1 1 1 0 -0 -1 -1 -1 -3 -3 -4 -4 -5 -5 -5 -5 -5 -6 -6 -6 -7 -7 -8 -9 -9 -9 -10 -10 -10 -11 -11 -12 -12
1 1 1 1 1 1 1 1 1 1 1 1 0 -0 -1 -0 -1 -1 -3 -4 -4 -5 -5 -5 -5 -6 -6 -7 -7 -7 -7 -7 -8 -8 -9 -9 -9 -10 -10 -11 -12 -12 -13
2 2 2 2 1 1 1 1 1 1 1 0 -0 -0 -1 -1 -1 -2 -3 -4 -4 -5 -6 -6 -6 -7 -7 -7 -8 -8 -8 -8 -9 -9 -10 -10 -10 -11 -11 -12 -12 -13 -14
2 2 1 1 1 1 1 1 1 1 -0 -0 -1 -2 -1 -2 -2 -3 -4 -4 -5 -5 -6 -6 -7 -8 -8 -8 -9 -9 -10 -10 -10 -10 -11 -10 -11 -11 -12 -12 -13 -14 -14
2 1 1 2 2 1 1 1 1 0 -1 -1 -1 -1 -2 -2 -3 -4 -4 -5 -5 -6 -7 -7 -8 -9 -9 -10 -10 -11 -11 -11 -11 -11 -12 -11 -12 -12 -13 -13 -14 -14 -15
2 2 1 1 1 1 1 1 0 -0 -0 -1 -1 -2 -2 -3 -4 -4 -5 -6 -7 -7 -8 -9 -9 -10 -11 -12 -12 -12 -12 -12 -12 -12 -12 -13 -13 -13 -14 -14 -15 -15 -16
2 1 1 1 1 1 0 -0 -0 -1 -1 -1 -2 -2 -3 -3 -4 -5 -6 -7 -8 -9 -10 -11 -11 -12 -13 -12 -13 -13 -13 -13 -13 -12 -13 -14 -14 -15 -14 -15 -16 -16 -17

GFSMA_700_temp_069.txt.gz
Temp
2 1 1 2 2 1 1 2 2 2 2 2 2 2 2 2 2 2 2 2 2 2 2 2 2 2 3 3 3 3 3 3 3 2 2 2 2 1 1 1 1 1 1
1 0 1 1 2 1 1 1 2 2 2 2 2 1 1 2 2 2 2 1 1 2 2 2 2 2 2 2 2 2 2 2 2 2 2 2 2 1 1 1 1 1 1
-0 0 0 1 1 2 2 1 2 2 1 1 1 1 1 1 1 1 2 1 1 1 1 1 1 1 1 1 1 1 1 1 2 2 1 1 1 1 1 0 0 0 0
-0 -0 0 1 1 2 1 1 2 1 1 1 1 1 1 1 1 1 1 1 1 1 1 1 1 1 1 1 1 0 1 1 1 1 1 1 1 0 0 -0 -0 -0 -0
-1 -1 -0 0 0 0 0 1 1 1 1 1 1 1 1 1 1 1 1 1 1 1 1 1 0 0 1 0 0 0 0 0 0 0 0 0 0 -0 -0 -1 -1 -1 -1
-1 -1 -1 -1 -1 -1 -0 -0 0 0 0 1 0 1 1 0 0 0 0 0 0 0 0 -0 -0 -0 -0 -1 -1 -1 -0 -0 0 0 0 0 0 -1 -1 -1 -1 -1 -1
-2 -1 -1 -2 -2 -1 -1 -2 -1 0 0 0 0 0 0 0 0 -0 -0 -0 -0 -0 -0 -1 -1 -1 -2 -1 -2 -2 -2 -1 -0 -0 -0 0 -1 -1 -2 -2 -2 -2 -2
-2 -2 -2 -2 -2 -1 -1 -1 -2 -0 0 -0 0 -0 0 0 0 -0 -1 -1 -1 -1 -1 -1 -1 -1 -2 -2 -2 -2 -3 -2 -2 -1 -1 -1 -1 -1 -2 -2 -2 -2 -3
-2 -2 -2 -2 -2 -1 -2 -2 -2 -1 0 -0 -0 -0 0 1 0 -0 -0 -1 -1 -1 -1 -1 -1 -1 -1 -2 -3 -3 -2 -2 -2 -2 -2 -2 -1 -2 -2 -3 -3 -3 -3
-2 -2 -2 -2 -2 -2 -2 -2 -1 -1 0 0 -0 -0 -0 0 0 1 0 -1 -1 -1 -1 -1 -1 -2 -1 -2 -2 -3 -2 -3 -3 -3 -4 -3 -3 -3 -3 -3 -3 -3 -4
-1 -1 -2 -2 -1 -1 -1 -1 -1 -0 -0 -0 0 -0 -0 -0 0 -0 -0 0 -1 -1 -1 -1 -1 -2 -2 -2 -2 -2 -4 -3 -3 -4 -4 -4 -4 -4 -5 -5 -4 -4 -4
-1 -1 -2 -1 -2 -2 -1 -2 -1 -0 -0 0 -0 -0 -0 -0 0 0 -0 -0 -1 -1 -1 -1 -2 -2 -2 -2 -2 -4 -4 -4 -4 -5 -4 -5 -6 -6 -7 -7 -8 -8 -9
-2 -2 -2 -2 -1 -1 -1 -1 -0 -0 -0 0 -0 -0 -1 -0 -0 -0 -0 -1 -1 -1 -1 -1 -1 -2 -3 -2 -3 -4 -4 -4 -5 -5 -5 -6 -6 -5 -5 -7 -8 -8 -9
-0 -1 -1 -1 -1 -0 -0 -1 -1 -1 -1 0 -0 0 -0 -1 -1 -1 -1 -1 -0 -1 -1 -1 -2 -2 -3 -3 -3 -4 -5 -4 -5 -5 -5 -5 -5 -5 -5 -6 -6 -7 -7
2 2 2 1 1 1 0 -1 -1 -1 -0 -0 0 0 -0 -1 -1 -1 -1 -1 -1 -1 -1 -2 -2 -2 -3 -3 -4 -4 -4 -4 -5 -5 -5 -5 -5 -5 -6 -6 -7 -7 -8
3 2 2 2 2 1 0 -0 -1 -0 0 0 -0 -0 -0 -1 -0 -0 -0 0 -0 -1 -2 -2 -3 -3 -3 -4 -4 -4 -4 -6 -5 -5 -5 -5 -6 -6 -6 -7 -7 -8 -8
3 2 2 1 1 1 0 -0 0 0 0 -0 -0 -0 -0 -1 -0 0 -0 -0 -1 -2 -2 -2 -3 -3 -3 -5 -5 -5 -5 -5 -5 -5 -5 -6 -6 -6 -7 -8 -8 -8 -9
3 2 1 -0 1 0 0 0 -0 0 -0 -0 0 -0 -0 -1 0 -0 -0 -1 -2 -1 -2 -2 -3 -4 -5 -5 -5 -6 -5 -5 -5 -6 -6 -6 -7 -7 -8 -8 -9 -9 -9
2 2 0 -1 0 1 0 0 -0 0 -0 -0 -0 -0 -0 -1 0 -0 -1 -1 -1 -2 -3 -3 -4 -4 -4 -5 -5 -5 -6 -6 -6 -6 -7 -7 -8 -8 -9 -9 -9 -9 -10
2 1 1 -1 -0 0 -0 -0 0 -0 -0 -0 -0 -0 0 0 1 -1 -1 -1 -2 -3 -3 -3 -4 -4 -4 -5 -5 -6 -6 -6 -7 -8 -8 -9 -9 -9 -9 -10 -10 -10 -10
2 2 1 -0 0 1 0 -0 -0 -1 -0 0 -0 0 1 1 0 -0 -2 -1 -2 -3 -2 -2 -4 -4 -5 -6 -6 -6 -7 -7 -8 -8 -9 -9 -10 -10 -10 -10 -10 -10 -11
3 2 2 1 1 1 1 0 0 1 0 0 0 0 1 0 -1 -2 -2 -1 -2 -3 -3 -4 -4 -4 -6 -7 -7 -7 -8 -8 -8 -9 -9 -10 -10 -11 -11 -11 -11 -11 -12
3 3 2 2 1 1 1 1 1 1 1 1 1 0 0 -1 -1 -1 -1 -2 -2 -3 -4 -5 -6 -6 -7 -7 -8 -8 -9 -9 -10 -11 -11 -10 -11 -11 -11 -11 -12 -12 -13
3 3 2 2 2 2 2 2 2 1 1 0 -0 -1 -1 -1 -2 -2 -2 -2 -3 -4 -5 -6 -6 -7 -8 -8 -9 -9 -10 -11 -11 -12 -12 -10 -12 -11 -11 -12 -12 -13 -14
2 2 2 2 2 2 2 2 1 1 1 0 -1 -1 -1 -2 -2 -2 -2 -3 -5 -5 -6 -7 -8 -8 -9 -10 -10 -11 -12 -12 -12 -12 -12 -12 -12 -12 -12 -12 -13 -14 -14
2 2 2 2 2 1 1 1 1 1 0 -0 -1 -2 -3 -2 -2 -3 -3 -5 -5 -6 -7 -8 -9 -10 -10 -10 -11 -12 -13 -13 -13 -12 -13 -13 -13 -14 -12 -13 -14 -15 -16

GFSMA_700_temp_072.txt.gz
Temp
1 1 2 2 2 2 1 2 2 2 2 1 2 2 2 2 3 2 2 2 2 2 2 2 2 2 2 2 3 3 3 3 3 3 3 3 2 2 2 2 2 2 1
1 2 1 1 1 1 1 1 1 2 2 2 2 2 1 2 2 2 2 2 2 2 2 2 2 1 1 2 2 2 2 3 3 3 3 3 2 2 2 2 1 1 1
0 2 1 1 1 1 1 1 1 1 2 2 1 1 1 1 1 1 1 1 1 1 1 1 1 1 1 1 1 1 2 2 2 2 2 2 2 2 2 1 1 1 1
-0 -0 0 1 1 1 1 1 0 1 2 2 1 1 1 1 1 1 1 1 1 1 1 1 1 1 1 1 1 1 1 1 1 1 2 2 1 1 1 1 1 1 1
0 -1 0 1 1 1 1 0 -0 1 1 1 1 1 1 1 1 1 1 1 1 1 1 1 1 1 1 0 0 0 0 0 0 0 0 0 0 0 1 1 1 0 0
-2 -1 -0 0 0 1 0 -0 -0 0 0 1 1 1 1 0 0 1 1 1 1 1 0 1 1 1 0 -0 0 -0 -1 -0 0 0 -0 -0 -0 -0 -0 -0 0 -0 -1
-1 -1 -1 -1 -1 -0 -0 -1 -0 -0 -0 0 0 0 0 0 0 0 0 1 0 0 0 0 -0 -0 -0 -1 -1 -1 -0 0 1 1 0 -0 -0 -1 -1 -1 -1 -1 -1
-1 -1 -1 -2 -2 -2 -1 -2 -1 -1 -1 -1 -0 -0 -0 0 0 0 0 0 0 0 -0 -1 -1 -1 -1 -1 -1 -1 -1 -1 -0 -0 -0 -1 -1 -1 -1 -1 -1 -1 -2
-2 -1 -1 -1 -1 -2 -1 -2 -1 -2 -2 -1 -1 -0 -0 0 0 0 0 -0 -0 -0 -0 -1 -1 -1 -1 -1 -1 -1 -1 -1 -1 -1 -2 -2 -1 -1 -1 -1 -2 -2 -2
-2 -2 -1 -1 -1 -2 -1 -2 -2 -2 -2 -1 -1 -1 -0 0 0 0 1 0 -0 -0 -1 -1 -1 -0 -1 -1 -1 -1 -1 -2 -2 -3 -3 -3 -3 -3 -3 -3 -2 -2 -2
-1 -1 -1 -1 -1 -1 -1 -1 -2 -1 -1 -1 -1 -1 -0 0 -0 -0 0 -0 1 -0 -1 -1 -1 -1 -1 -1 -1 -1 -2 -3 -2 -3 -3 -3 -4 -4 -4 -4 -4 -5 -4
-0 -0 -0 -1 -1 -1 -1 -1 -2 -1 -1 -1 -1 -1 -0 -0 0 0 0 0 -0 -0 -0 -0 -1 -1 -1 -1 -1 -1 -2 -3 -2 -3 -4 -4 -4 -4 -4 -4 -4 -5 -6
-0 -0 -0 -0 -1 -1 -1 -1 -1 -1 -1 -1 -1 -0 -0 -0 0 0 0 0 -0 -0 -0 -1 -1 -1 -1 -1 -2 -2 -3 -3 -3 -3 -4 -4 -4 -4 -5 -4 -5 -5 -5
-0 -1 -0 -1 -0 -1 -1 -1 -1 -1 -1 -1 -1 -1 -1 -0 -0 -0 -0 -0 0 -0 -1 -1 -1 -1 -1 -2 -2 -2 -2 -2 -3 -4 -3 -4 -5 -5 -5 -5 -5 -5 -5
2 0 -0 -1 -1 -1 -1 -1 -1 -1 -0 -0 -0 -1 -1 -0 -0 -0 -0 -1 -1 -1 -0 -1 -1 -1 -1 -2 -2 -3 -2 -3 -4 -4 -3 -3 -5 -4 -4 -4 -5 -6 -6
4 3 3 2 0 -0 -1 -1 -0 -0 -0 1 0 -0 -0 -0 -0 -0 -0 -1 -1 -1 -1 -1 -1 -1 -2 -2 -2 -2 -2 -3 -3 -3 -3 -4 -4 -4 -5 -5 -6 -6 -6
4 4 3 3 2 1 1 1 1 0 0 0 0 -0 -0 -0 -0 -1 -1 -1 -1 -1 -1 -1 -2 -2 -2 -2 -3 -2 -3 -3 -4 -3 -4 -4 -5 -5 -5 -6 -6 -7 -7
3 3 3 2 2 2 1 1 1 1 1 0 -0 -1 -0 -1 -1 -1 -1 -1 -1 -1 -0 -1 -1 -1 -2 -3 -3 -3 -4 -5 -5 -4 -5 -5 -5 -6 -6 -7 -7 -8 -8
4 3 3 3 2 1 1 1 1 0 -0 -0 -1 -1 -1 -1 -1 -1 -1 -1 -0 -1 -1 -2 -1 -2 -3 -3 -3 -4 -5 -5 -5 -5 -5 -6 -6 -7 -7 -8 -8 -9 -9
4 3 3 2 1 1 1 0 -0 -0 -0 -0 -1 -0 -1 -1 -1 -1 -1 -1 -1 -1 -1 -2 -2 -2 -3 -3 -3 -5 -5 -5 -5 -6 -6 -7 -7 -8 -8 -9 -10 -10 -10
3 3 2 2 2 1 0 -1 -1 -0 -0 -0 -0 -0 -0 -1 -1 -1 -1 -1 -1 -2 -2 -1 -2 -2 -2 -3 -4 -5 -5 -6 -7 -7 -7 -8 -8 -8 -9 -10 -10 -10 -10
4 3 2 2 2 1 0 -0 -0 0 0 0 -0 -0 -0 -0 -0 -0 -0 -1 -1 -2 -2 -2 -2 -3 -4 -4 -5 -6 -6 -7 -8 -8 -8 -9 -9 -9 -10 -10 -11 -11 -11
4 4 3 2 2 2 1 1 1 0 0 0 0 1 1 0 -0 -0 -1 -2 -2 -1 -2 -3 -3 -3 -5 -5 -7 -7 -7 -8 -8 -9 -9 -9 -10 -10 -11 -11 -11 -11 -11
4 4 3 3 3 2 1 1 0 -0 0 0 1 1 0 0 -0 -1 -1 -1 -1 -1 -2 -4 -4 -3 -6 -7 -7 -7 -8 -9 -9 -10 -10 -10 -10 -11 -11 -11 -11 -11 -12
4 4 3 3 2 2 2 1 1 1 1 1 1 0 0 0 -0 -1 -1 -2 -2 -2 -3 -4 -5 -6 -6 -7 -8 -9 -9 -10 -10 -11 -11 -11 -12 -12 -12 -12 -12 -12 -12
4 3 3 3 2 2 2 2 2 1 1 1 1 -0 -1 0 -1 -1 -1 -2 -3 -3 -5 -6 -6 -7 -7 -8 -10 -11 -11 -11 -12 -12 -12 -12 -12 -13 -11 -12 -12 -13 -14

GFSMA_700_temp_075.txt.gz
Temp
1 1 1 2 2 2 2 2 2 2 2 2 2 2 2 2 2 2 2 2 3 2 2 2 2 2 2 2 2 2 2 2 2 2 2 2 3 3 3 3 2 2 2
-0 1 1 1 2 2 2 2 2 2 2 2 2 2 2 2 2 2 2 2 2 2 2 2 2 2 2 2 2 2 2 2 3 2 2 3 3 3 3 3 2 2 2
-1 -0 1 1 1 2 2 2 1 2 2 1 1 1 1 1 2 2 2 2 2 2 2 2 2 2 2 2 2 2 3 2 2 2 2 2 3 2 2 2 2 2 2
-0 0 1 1 2 2 1 1 1 1 1 1 1 1 1 1 1 1 1 1 1 2 2 2 2 2 2 2 2 2 2 2 2 2 2 2 2 2 2 1 1 1 1
-2 -0 0 1 1 1 1 1 1 1 1 1 1 1 1 1 1 1 1 1 1 1 1 1 2 2 2 2 2 1 1 2 1 1 1 1 1 1 1 1 1 1 1
-2 -1 -1 -0 0 -1 1 1 1 1 0 1 1 1 1 0 0 0 1 1 1 1 1 2 1 1 1 1 1 1 1 1 0 1 1 1 0 0 1 1 0 0 0
-2 -1 -1 -1 -1 -1 0 1 0 0 -0 0 0 0 0 0 0 1 0 1 1 1 1 1 2 1 0 0 0 1 1 1 1 1 0 1 0 0 0 -0 -0 -0 0
-1 -1 -1 -1 -1 0 -0 -0 -0 -0 -0 -0 -0 -0 0 0 0 0 0 0 0 0 0 -0 -0 -0 0 1 0 -0 0 0 -0 0 1 -0 -0 -0 -1 -1 -1 -1 -1
-2 -1 -1 -1 -1 -1 -1 -1 -1 -1 -1 -1 -0 0 -1 0 -0 0 0 0 0 0 -0 -0 -0 -0 -1 -1 0 0 -0 -0 -0 -0 -1 -0 0 0 -0 -0 0 0 -0
-0 -1 -1 -1 -1 -1 -1 -1 -1 -0 -0 -1 -1 -0 -1 -1 -1 -1 -0 0 -0 -0 -0 -0 -0 -0 -1 -0 -1 -1 -0 -1 -1 -1 -1 -2 -2 -2 -1 -1 -1 -1 0
-0 -1 -1 -1 -1 -1 -1 -1 -1 -1 -0 -1 -1 -1 -1 -1 -0 -1 -0 0 1 1 0 0 -0 -0 -0 -1 -1 -0 -1 -1 -1 -1 -2 -2 -2 -2 -2 -2 -3 -3 -4
0 -0 -1 -1 -1 -1 -1 -1 -1 -1 -0 -1 -1 -1 -1 -1 -0 -0 -0 -0 -1 -0 0 1 1 0 -0 -0 -0 -0 -0 -2 -1 -2 -2 -2 -3 -3 -3 -3 -3 -3 -4
0 1 -0 -1 -1 -0 -1 -1 -0 -1 -1 -1 -1 -1 -1 -1 -0 -0 -0 -0 -0 -0 1 1 1 0 0 -1 -1 -0 -1 -2 -2 -2 -2 -2 -3 -3 -3 -3 -3 -4 -4
1 1 0 -0 -1 -1 -1 -1 -1 -1 -1 -1 -1 -1 -1 -0 -0 -0 -1 -0 0 0 0 0 -0 -0 0 -0 -1 -1 -1 -2 -1 -3 -3 -2 -3 -4 -4 -3 -4 -3 -3
3 2 0 0 -0 -1 -0 -0 -1 -1 -1 -1 -1 -1 -0 0 -0 -0 -0 -0 -0 -0 0 0 -1 0 -0 -1 -1 -1 -2 -2 -2 -2 -2 -3 -3 -3 -4 -3 -3 -4 -4
4 4 3 1 0 -1 -1 -1 -1 -1 -1 -1 -1 -0 0 0 0 0 -0 -0 -1 -0 -1 -0 -1 -1 -0 -1 -1 -2 -2 -2 -2 -3 -3 -2 -4 -3 -3 -3 -4 -4 -4
4 4 4 3 2 1 -0 -0 -0 -0 -0 -0 -0 0 1 0 0 -0 -0 -1 -1 -1 -1 -1 -1 -1 -1 -1 -1 -2 -2 -2 -2 -2 -3 -2 -4 -3 -4 -4 -5 -5 -5
4 4 4 3 3 3 2 1 1 1 1 1 1 1 1 0 -0 -0 -1 -1 -1 -1 -1 -1 -1 -1 -2 -1 -2 -2 -3 -3 -3 -3 -2 -3 -4 -4 -4 -5 -5 -6 -6
4 4 4 3 3 3 3 2 2 2 1 1 1 1 1 0 0 -0 -0 -1 -1 -2 -2 -1 -1 -1 -1 -1 -2 -2 -2 -3 -3 -3 -3 -4 -4 -4 -5 -5 -6 -7 -7
5 4 4 4 3 3 3 3 2 2 2 2 1 1 0 1 1 -1 -1 -1 -1 -1 -1 -1 -2 -1 -1 -1 -2 -2 -2 -3 -3 -4 -5 -5 -5 -5 -6 -7 -7 -8 -9
5 4 4 3 3 3 3 2 2 1 1 -0 -2 -1 -1 -0 -0 -1 -1 -1 -0 -1 -1 -1 -1 -1 -1 -2 -2 -2 -3 -4 -5 -6 -6 -5 -5 -6 -7 -7 -8 -9 -9
5 4 4 4 3 3 3 2 2 1 -0 -1 -1 -1 -1 -0 -1 0 -0 -0 -0 -0 -1 -1 -1 -1 -1 -2 -2 -3 -4 -4 -5 -6 -6 -6 -7 -7 -8 -9 -10 -10 -10
5 5 4 4 4 3 3 2 1 1 -0 -0 -0 -0 0 -0 -1 -0 0 -0 -0 -1 -1 -1 -1 -1 -2 -3 -3 -4 -4 -5 -6 -6 -7 -7 -8 -9 -10 -10 -11 -11 -11
5 5 5 4 4 3 3 3 2 1 0 1 1 1 1 -0 0 -0 -1 -0 0 -0 -1 -1 -1 -1 -3 -4 -5 -4 -5 -6 -6 -8 -9 -9 -10 -10 -10 -11 -11 -11 -11
6 5 5 5 4 4 3 3 2 2 1 1 1 1 0 0 -0 -0 0 -1 -0 -0 -0 -1 -2 -4 -4 -4 -6 -6 -6 -6 -7 -9 -10 -11 -10 -10 -10 -11 -11 -12 -12
5 5 5 4 4 4 3 3 2 2 2 1 1 1 0 0 -0 0 0 -0 -1 -1 -2 -2 -4 -4 -5 -6 -6 -6 -7 -8 -9 -10 -11 -11 -11 -12 -11 -11 -11 -12 -12

GFSMA_700_temp_081.txt.gz
Temp
3 2 2 2 2 2 3 3 2 2 3 3 2 3 4 3 4 4 3 3 3 3 3 2 3 3 3 3 3 4 4 4 4 4 4 4 4 4 3 3 3 3 3
2 2 2 2 3 3 3 2 3 2 3 2 2 3 3 3 3 3 3 3 2 2 2 2 2 2 3 3 3 3 3 4 3 3 3 3 3 3 3 3 3 2 2
2 2 2 1 3 2 2 2 3 2 3 2 2 3 3 2 2 3 3 2 2 2 2 2 2 2 3 3 3 3 3 3 3 3 3 2 2 2 2 2 2 2 1
2 2 2 2 2 1 2 2 2 2 2 2 2 2 3 2 2 2 2 2 2 2 2 2 2 2 2 2 2 2 2 2 2 2 2 2 2 2 2 2 1 1 1
2 2 2 2 1 1 2 2 2 2 2 2 2 1 2 3 1 2 2 2 2 1 1 1 2 2 2 2 2 2 2 2 2 2 2 2 2 2 1 1 1 1 1
2 2 2 1 -1 1 1 2 1 2 2 2 1 1 1 2 2 1 1 1 1 1 1 1 2 2 2 2 2 2 2 1 2 2 2 2 1 1 1 1 0 0 0
2 1 2 1 -1 -0 1 1 1 1 1 1 1 1 1 1 1 2 2 1 1 1 1 1 1 1 1 1 1 1 1 1 1 1 1 1 1 1 0 0 0 -0 -0
1 1 1 0 0 -0 -1 0 1 1 1 1 1 0 1 1 1 1 1 1 1 1 1 1 1 1 1 1 1 1 1 1 1 1 1 1 1 0 0 0 -0 -1 -1
1 1 0 -0 0 0 -0 -0 -0 0 1 1 0 -0 1 1 1 0 0 0 -0 0 0 0 1 1 1 1 0 0 0 0 0 1 1 1 0 0 -0 -0 -0 -1 -0
0 1 0 0 0 0 -1 -1 -1 0 0 -0 -0 1 0 0 0 0 0 -0 -0 -0 -0 -0 -0 -0 0 0 0 0 0 1 0 -0 -1 -1 -1 1 -0 -1 -1 -0 -1
1 1 1 -0 -1 -1 -1 -1 -0 -0 -1 -0 -0 0 -0 -0 -1 -1 -1 -1 -1 -0 -1 -1 -0 -0 -0 -0 0 1 0 -0 -1 -2 -1 -1 -1 -1 -1 -1 -1 -1 -1
1 1 2 1 0 -1 -1 -0 -0 -1 -1 -2 -1 -1 -1 -0 -0 -1 -1 -1 -2 -1 -1 -1 -0 0 -0 -0 0 0 0 0 0 -1 -1 -1 -1 -1 -2 -2 -2 -2 -1
1 2 1 1 1 -0 -1 -1 -1 -1 -2 -2 -1 -1 -1 -1 -1 -1 -1 -1 -1 -1 -1 -1 -0 -0 -1 -0 -0 -0 -0 -0 0 -0 -0 -1 -1 -1 -2 -2 -2 -2 -2
1 1 0 0 1 -0 -1 -2 -2 -2 -2 -1 -1 -1 -2 -2 -1 -1 -1 -1 -1 -1 -1 0 -0 -0 -0 -0 -0 -0 -0 -0 -1 -1 -1 -1 -1 -2 -2 -2 -2 -2 -2
1 0 1 0 0 0 -1 -1 -2 -2 -2 -2 -1 -1 -1 -1 -2 -2 -1 -1 -2 -1 -1 0 -1 -0 -1 -1 -1 -1 -1 -0 -1 -1 -1 -0 -1 -1 -2 -2 -3 -3 -3
4 3 2 1 -0 1 1 -0 -1 -2 -2 -2 -1 -1 -1 -1 -1 -1 -1 -1 -1 -0 -1 0 -0 -0 -1 -1 -1 -1 -1 -1 -1 -1 -1 -2 -2 -2 -2 -3 -3 -3 -3
5 5 4 3 3 2 1 -1 -0 -0 -1 -1 -2 -1 -1 -1 -1 -2 -2 -1 -1 -1 -1 -1 -1 -0 -1 -0 -0 -1 -1 -2 -2 -2 -2 -2 -2 -2 -2 -2 -3 -3 -3
5 5 5 5 5 4 3 2 2 1 -1 -1 -1 -1 -1 -1 -1 -1 -1 -2 -2 -1 -1 -1 -1 -1 -1 -1 -1 -1 -1 -2 -2 -2 -2 -2 -2 -2 -2 -3 -3 -3 -3
5 5 5 5 5 5 4 4 3 2 1 1 -0 -1 -0 -1 -1 -1 -1 -0 -1 -0 -1 -1 -1 -1 -1 -1 -1 -1 -1 -2 -2 -2 -2 -2 -2 -2 -2 -3 -4 -4 -4
5 5 5 5 5 4 4 4 4 3 3 3 3 3 3 2 2 1 -0 -0 -0 -1 -1 -1 -1 -1 -1 -1 -1 -1 -1 -1 -2 -2 -2 -2 -2 -2 -2 -3 -3 -5 -6
5 5 5 5 4 4 4 4 4 4 3 3 3 3 2 2 2 1 0 -0 -1 -1 -1 -1 -1 -1 -1 -1 -1 -1 -1 -2 -2 -2 -2 -2 -2 -2 -2 -3 -5 -4 -5
6 5 5 5 5 5 4 4 4 3 3 3 3 2 2 2 2 1 0 -1 -1 -1 -1 -1 -1 -1 -1 -1 -1 -1 -1 -2 -2 -2 -2 -2 -2 -2 -4 -4 -4 -5 -6
6 6 6 6 6 5 5 4 3 3 2 2 2 2 2 2 1 1 0 -0 -0 -1 -1 -1 -0 -0 -1 -1 -1 -1 -1 -2 -1 -2 -2 -2 -2 -3 -5 -5 -5 -6 -6
6 6 6 6 6 6 6 5 4 3 3 2 2 1 1 1 1 0 0 -0 -1 -1 -0 -0 -0 -1 -1 -1 -1 -2 -2 -2 -2 -2 -2 -3 -4 -5 -5 -5 -6 -7 -8
5 6 6 6 6 6 5 5 5 4 4 3 4 3 2 1 0 -1 -0 -0 -1 -1 -1 -0 -1 -1 -2 -1 -2 -1 -2 -2 -2 -3 -3 -5 -5 -5 -5 -6 -7 -7 -9
5 5 5 5 6 6 6 5 5 4 4 4 3 3 2 1 -0 -0 -1 -1 0 -0 -1 -1 -1 -1 -0 -0 -1 -2 -2 -3 -4 -5 -6 -6 -6 -6 -6 -6 -8 -9 -10

GFSMA_700_temp_084.txt.gz
Temp
3 3 4 3 3 4 4 4 3 3 3 4 3 4 4 3 4 4 4 4 3 3 3 3 3 3 3 3 3 3 3 3 3 3 3 3 3 3 3 3 3 3 3
3 2 3 2 2 3 3 3 2 2 3 4 3 4 4 3 4 4 3 3 3 3 3 3 3 3 3 3 3 3 3 3 3 3 3 3 3 2 2 2 2 2 2
2 2 3 3 2 2 3 2 2 2 2 4 3 3 3 3 4 4 3 3 3 3 3 2 2 2 2 2 3 3 3 2 2 2 2 2 2 2 2 2 2 2 2
3 2 3 2 2 2 2 2 2 3 2 3 3 3 3 2 3 3 3 3 3 2 2 2 2 2 2 2 2 2 2 2 2 2 2 2 1 1 1 1 1 1 1
2 2 2 2 1 2 2 2 2 2 2 2 3 2 2 2 3 2 2 2 2 2 1 1 1 2 2 2 2 2 2 2 1 1 1 1 1 1 1 1 1 1 0
2 2 2 2 1 2 1 1 1 2 2 2 3 2 2 2 2 2 2 2 2 1 1 1 1 1 1 1 1 1 1 1 1 1 0 0 1 1 1 1 0 1 1
2 2 2 2 0 1 1 1 1 1 2 1 1 1 2 1 1 1 2 1 1 1 1 1 1 1 1 1 1 1 1 1 1 1 1 1 1 1 1 0 0 0 0
2 2 2 2 1 1 -1 1 1 1 1 1 1 1 2 2 1 1 1 1 1 1 1 1 1 0 0 1 0 0 0 0 0 0 0 1 0 -0 -0 -0 -0 -0 -0
2 2 2 1 1 1 -1 -0 0 1 1 1 0 1 1 1 0 1 1 1 1 1 0 0 0 0 -0 -0 0 0 0 -0 0 0 1 1 -0 -1 -1 -1 -1 -0 -1
2 2 1 1 0 0 -2 -1 0 1 0 0 1 0 -0 -1 -1 1 1 1 1 1 1 1 0 -0 -0 0 -0 -0 0 0 -0 -0 -0 -0 -0 -1 -1 -1 -1 -1 -1
1 1 1 1 0 -0 -1 -1 -1 -1 -1 -1 -1 -1 -1 0 -1 0 0 1 1 0 0 0 0 -0 -0 0 0 -0 -0 -0 -0 -0 -0 -0 -1 -1 -1 -1 -1 -2 -2
0 1 1 0 0 -0 -0 -0 -1 -1 -2 -2 -1 -1 -1 -1 -1 0 -0 -0 -0 -1 -1 -1 -1 -1 -0 -0 -0 -0 -0 -0 -0 -0 -0 -0 -1 -1 -1 -1 -2 -1 -2
1 0 1 1 1 -0 0 -0 -0 -2 -2 -1 -2 -2 -2 -1 -2 -1 -1 -1 -1 -1 -1 -1 -1 -1 -1 -1 -1 -1 -0 -0 -0 -0 -0 -1 -1 -1 -1 -1 -2 -2 -2
1 1 1 1 0 0 0 -1 -1 -1 -1 -1 -2 -2 -1 -2 -2 -1 -1 -1 -2 -1 -1 -1 -2 -2 -2 -2 -1 -1 -1 -1 -1 -1 -1 -1 -1 -1 -1 -1 -1 -2 -2
1 0 1 0 0 0 -1 -1 -1 -1 -2 -1 -2 -2 -2 -2 -2 -2 -2 -2 -2 -2 -1 -1 -2 -1 -2 -1 -1 -2 -2 -1 -1 -1 -1 -1 -1 -1 -1 -1 -2 -2 -2
3 2 1 0 1 0 0 -0 -1 -2 -1 -2 -2 -1 -1 -2 -1 -1 -1 -2 -2 -2 -1 -1 -0 -1 -1 -1 -1 -1 -1 -1 -1 -1 -2 -2 -2 -2 -2 -2 -2 -2 -2
5 4 4 3 2 1 0 -0 0 -0 -1 -0 -1 -1 -1 -1 -1 -1 -1 -1 -2 -1 -1 -1 -1 -1 -1 -1 -1 -1 -1 -1 -1 -2 -2 -2 -2 -2 -2 -2 -2 -2 -3
5 5 5 5 4 4 3 2 2 -0 -0 -1 -1 -1 -1 -1 -1 -1 -1 -1 -1 -1 -1 -1 -1 -1 -1 -1 -1 -1 -1 -1 -1 -1 -1 -2 -2 -2 -2 -2 -2 -2 -3
5 5 5 5 5 5 4 4 3 2 2 1 0 -0 -0 -1 -1 -1 -1 -1 -1 -1 -1 -1 -1 -2 -2 -1 -1 -1 -1 -1 -1 -1 -1 -2 -1 -2 -2 -3 -2 -2 -2
5 5 5 5 5 4 4 4 4 3 3 3 2 2 2 1 1 -0 -1 -1 -1 -1 -1 -1 -1 -1 -1 -1 -1 -1 -1 -1 -1 -1 -1 -2 -2 -2 -2 -3 -2 -2 -2
5 5 5 5 4 4 4 4 4 4 3 3 3 3 3 3 2 2 1 1 -0 -1 -0 -1 -0 0 -0 -1 -1 -1 -1 -1 -1 -1 -1 -1 -2 -2 -2 -2 -2 -2 -2
5 5 5 5 5 4 4 4 4 3 3 3 3 3 3 2 2 2 2 1 0 0 -0 -1 -0 -1 -0 -1 -1 -1 -1 -1 -1 -1 -2 -2 -2 -2 -2 -2 -2 -3 -3
5 5 5 5 6 5 5 4 3 3 3 3 3 3 2 2 2 2 1 1 1 0 0 0 -0 -1 -1 -1 -1 -1 -1 -1 -1 -1 -1 -2 -2 -2 -2 -2 -3 -4 -4
4 4 4 5 5 6 5 5 4 3 3 3 3 2 2 2 2 1 1 1 0 1 1 0 0 -0 -0 -0 -1 -1 -1 -1 -1 -2 -2 -2 -2 -3 -3 -3 -4 -5 -6
4 5 4 4 4 5 5 6 5 4 4 4 4 3 3 3 2 2 1 0 -0 -1 -1 -1 -1 -1 -0 -1 -1 -1 -1 -1 -1 -1 -2 -2 -2 -3 -4 -5 -6 -6 -6
4 4 4 4 3 3 4 4 4 4 4 4 4 4 4 3 2 2 1 0 -0 -0 -0 0 -0 -1 -1 -1 -1 -1 -2 -2 -1 -2 -3 -3 -3 -5 -6 -6 -7 -7 -7

GFSMA_700_temp_087.txt.gz
Temp
2 2 2 2 2 3 3 3 4 4 5 4 4 4 4 4 4 4 4 4 4 4 4 3 3 3 3 3 3 3 3 3 3 3 3 3 2 3 3 2 2 2 2
3 2 3 3 2 3 3 3 4 4 5 4 3 4 3 3 4 4 3 3 3 3 3 3 3 3 3 3 3 3 3 3 3 3 2 2 2 2 2 2 2 2 2
2 2 3 3 3 3 3 2 3 4 4 4 3 3 3 3 3 3 3 3 3 3 3 2 2 2 2 2 2 2 2 2 2 2 2 2 2 2 2 2 2 1 1
2 2 3 3 2 2 3 2 2 3 3 3 3 2 3 3 3 3 3 3 2 2 2 2 2 2 2 2 2 2 2 2 2 2 1 2 1 1 1 1 1 1 1
2 2 2 2 2 2 2 2 2 3 4 3 3 2 2 2 2 2 2 2 2 2 2 1 1 1 2 1 1 1 1 1 1 1 1 1 1 1 1 1 1 1 0
2 2 2 2 1 2 1 2 1 2 2 2 2 2 1 2 1 2 2 1 1 1 1 1 1 1 1 1 1 1 1 1 1 1 1 0 1 0 0 0 0 0 0
1 2 1 2 1 1 1 1 1 1 1 1 1 1 1 1 1 1 1 1 1 1 1 1 1 1 1 1 1 1 1 1 0 0 0 0 0 0 -0 0 -1 -1 -1
2 2 2 1 1 -0 -1 1 1 1 0 1 1 1 1 1 1 1 1 1 1 1 1 1 1 1 1 1 0 1 0 0 0 -0 -0 -0 -0 -0 -0 -1 -1 -1 -1
2 2 1 2 1 -0 -1 -0 1 1 0 -0 0 0 1 1 1 1 1 -0 0 1 0 1 1 0 0 1 0 0 0 -0 -0 -0 -0 -0 -1 -2 -1 -2 -1 -2 -2
2 1 2 1 2 1 0 0 -2 -0 -0 -1 -1 -1 -0 -0 1 0 -1 0 -0 1 1 1 0 0 0 -0 -0 -0 -0 -0 -0 -0 -0 0 0 -1 -1 -2 -1 -1 -2
2 2 2 1 1 1 1 -0 -1 -3 -2 -1 -1 0 1 1 0 -0 -0 -1 -1 -0 -0 -0 -0 -1 -1 -1 -1 -1 -1 -1 -0 -0 -0 -0 -0 -0 -1 -0 -1 -1 -1
2 2 2 2 1 1 0 -0 -0 -2 -2 -1 -1 -1 -1 -0 -0 -1 -1 -1 -1 -1 -2 -1 -1 -1 -1 -1 -1 -1 -1 -1 -1 -1 -1 -1 -1 -1 -0 -1 -1 -1 -1
2 2 2 1 2 1 0 -0 -1 -2 -2 -1 -1 -1 -2 -2 -2 -2 -2 -2 -1 -2 -2 -2 -2 -1 -1 -2 -1 -1 -1 -1 -1 -1 -1 -1 -1 -1 -1 -1 -1 -1 -1
1 1 1 1 1 0 0 -0 -0 -1 -1 -1 -1 -2 -2 -1 -2 -2 -2 -2 -2 -2 -2 -1 -1 -2 -2 -2 -2 -1 -1 -1 -2 -2 -2 -1 -1 -1 -1 -1 -2 -2 -2
2 1 1 1 1 1 1 -1 -0 -0 -0 -0 -1 -2 -2 -2 -2 -2 -2 -2 -1 -1 -2 -1 -2 -2 -2 -2 -1 -1 -1 -1 -1 -1 -2 -1 -2 -1 -1 -1 -2 -2 -2
2 2 1 1 1 1 1 1 0 -0 -0 -0 -1 -2 -2 -2 -2 -3 -2 -2 -2 -1 -1 -0 -1 -1 -2 -1 -1 -2 -1 -1 -1 -1 -2 -2 -3 -2 -2 -2 -2 -2 -2
4 3 3 2 1 0 1 0 -0 -0 -1 -1 -2 -2 -2 -2 -2 -2 -1 -1 -0 -1 -2 -1 -1 -0 -1 -1 -1 -1 -1 -1 -1 -1 -1 -1 -1 -1 -1 -1 -1 -2 -2
5 4 4 4 3 3 2 0 -1 -1 -1 -1 -1 -1 -1 -2 -1 -2 -2 -1 -1 -1 -1 -2 -1 -2 -1 -1 -1 -1 -1 -1 -1 -1 -1 -1 -1 -2 -1 -2 -2 -2 -2
5 5 5 5 4 4 4 3 3 2 1 1 0 -1 -1 -1 -2 -2 -2 -2 -1 -1 -2 -2 -1 -1 -1 -2 -1 -1 -1 -2 -2 -2 -1 -2 -2 -1 -1 -1 -2 -2 -2
5 5 5 5 5 4 4 4 4 3 3 3 2 2 2 1 1 0 -1 -1 -1 -1 -2 -2 -2 -2 -2 -2 -2 -2 -1 -1 -1 -1 -1 -2 -2 -1 -1 -1 -2 -2 -2
4 4 4 4 4 4 4 4 4 4 4 3 3 3 3 3 2 1 0 1 -0 -1 -1 -2 -2 -2 -1 -1 -2 -1 -0 -0 -1 -1 -1 -1 -2 -1 -2 -1 -2 -2 -2
5 4 4 4 4 4 4 4 3 3 4 3 3 3 3 3 3 3 2 2 1 1 1 -0 -1 -1 -1 -0 -1 -0 -0 -1 -0 -0 -1 -1 -1 -1 -1 -2 -2 -2 -2
3 4 4 4 4 4 4 4 4 3 3 3 3 3 3 3 3 3 2 2 2 1 1 1 1 1 0 0 -0 -1 -0 -0 -0 -0 -1 -1 -1 -1 -1 -1 -2 -2 -2
4 4 3 3 4 4 4 4 3 3 3 3 3 3 3 3 3 2 2 2 2 1 1 1 1 1 1 1 0 -0 -0 -1 -1 -0 -1 -1 -1 -1 -1 -2 -2 -2 -3
4 4 4 4 3 3 3 2 2 2 2 2 2 3 3 3 3 2 2 2 1 1 1 1 1 0 -0 -0 -0 -1 -1 -1 -1 -1 -2 -1 -2 -1 -2 -2 -2 -3 -3
4 4 4 4 4 3 3 3 3 2 2 1 1 1 1 3 3 3 2 2 2 1 0 0 0 -0 -0 -1 -1 -1 -1 -1 -1 -1 -1 -2 -1 -2 -2 -2 -4 -5 -5

GFSMA_700_temp_093.txt.gz
Temp
3 3 2 3 2 2 3 1 2 2 3 2 3 3 3 3 3 4 4 4 3 4 4 4 3 3 3 3 3 3 3 3 3 3 3 3 3 3 3 3 3 3 3
3 3 3 2 2 2 2 1 2 2 2 3 3 3 2 3 3 3 3 3 3 3 3 3 3 3 3 3 3 3 3 3 3 3 3 3 3 3 3 3 2 2 2
2 2 2 1 1 2 1 1 2 2 2 2 2 2 3 3 3 3 3 3 2 3 3 3 3 2 2 2 2 2 2 2 2 2 2 2 2 2 2 2 2 2 2
2 2 2 2 1 1 2 0 2 2 2 2 2 3 2 2 3 2 3 2 3 3 2 2 2 2 2 2 2 2 2 2 2 2 2 2 2 2 2 2 2 2 2
1 1 1 2 1 2 1 1 2 2 2 2 2 2 2 2 2 2 2 2 2 2 2 2 2 1 2 2 2 2 2 2 2 2 2 2 2 1 1 1 1 1 1
1 2 2 2 2 2 1 1 2 2 2 2 2 2 1 1 2 2 2 2 2 2 2 2 2 1 1 1 1 1 1 1 1 1 1 1 1 1 1 1 1 1 1
2 2 3 2 2 2 1 2 2 2 2 1 1 1 1 1 1 1 2 2 2 2 2 2 1 1 1 1 1 1 1 1 1 1 1 1 1 1 1 1 1 1 1
2 2 2 2 1 1 1 1 2 2 1 1 1 0 1 1 1 1 1 1 1 2 2 1 1 1 1 1 0 0 0 0 1 0 0 0 0 0 0 0 0 0 1
1 1 1 1 2 2 2 2 2 1 1 -0 0 -0 1 1 1 1 1 1 2 1 1 1 1 0 0 1 0 0 0 0 0 0 0 -0 -0 0 0 0 0 -0 0
2 1 1 1 1 2 2 2 1 1 1 1 0 -0 0 0 0 0 0 0 0 0 0 -0 -0 -1 -1 -0 -0 -0 -0 -0 -0 -0 -0 -0 -0 -0 -0 -0 0 -0 0
2 1 1 1 1 1 1 2 1 -0 -0 0 0 0 -1 0 0 -0 -0 -1 -1 -0 -0 -0 -0 -1 -1 -1 -1 -1 -1 -1 -1 -1 -1 -1 -0 -0 -0 -0 -0 -0 -0
2 2 2 1 1 1 1 1 1 0 1 -1 -0 -0 -0 -1 -1 -1 -2 -2 -2 -2 -2 -2 -1 -0 -2 -2 -2 -2 -1 -1 -1 -1 -1 -1 -1 -1 -1 -1 -0 -0 -0
3 3 2 2 1 1 1 1 0 1 0 1 -1 -1 -1 -1 -2 -2 -1 -2 -2 -2 -2 -3 -2 -2 -2 -2 -2 -3 -2 -2 -1 -1 -2 -1 -1 -1 -1 -1 -1 -0 -0
3 2 2 2 2 2 2 1 0 1 0 1 -1 -2 -1 -2 -3 -2 -2 -3 -3 -3 -3 -3 -2 -2 -2 -2 -2 -2 -2 -2 -1 -2 -2 -2 -2 -1 -1 -1 -1 -1 -1
3 2 1 1 1 1 1 1 1 1 0 -0 0 -0 -1 -1 -2 -2 -3 -3 -2 -2 -2 -2 -2 -2 -2 -2 -2 -2 -2 -1 -1 -2 -2 -1 -2 -2 -2 -2 -2 -1 -2
3 2 1 1 1 1 1 1 1 0 0 0 -0 -0 -1 -0 -2 -2 -2 -2 -2 -2 -2 -2 -2 -2 -2 -2 -1 -2 -2 -1 -1 -1 -2 -2 -2 -2 -1 -2 -2 -2 -2
4 3 2 1 1 0 0 0 1 -0 0 0 -0 -1 -1 -1 -1 -1 -1 -1 -1 -1 -2 -0 -1 -2 -2 -2 -1 -1 -2 -1 -1 -1 -2 -2 -1 -1 -1 -1 -2 -2 -1
4 3 3 2 2 1 1 1 1 1 0 0 -1 -0 -1 -1 -0 -1 -1 -1 -1 -1 -2 -1 -2 -2 -2 -2 -2 -2 -1 -1 -1 -2 -1 -1 -1 -2 -2 -2 -1 -1 -1
4 4 4 3 3 2 2 2 2 2 1 1 0 -0 -0 -0 -0 -0 -1 -1 -1 -2 -2 -2 -1 -2 -2 -1 -1 -1 -1 -2 -1 -1 -1 -1 -2 -2 -2 -2 -1 -2 -1
5 4 4 4 4 3 3 3 3 2 2 2 1 1 1 1 1 1 0 0 -0 -1 -1 -2 -1 -1 -1 -1 -2 -1 -0 -1 -1 -1 -1 -1 -1 -1 -1 -1 -1 -1 -1
4 4 4 4 4 4 4 4 3 3 3 3 2 2 2 2 2 1 1 1 0 -0 -0 -1 -1 -1 -0 -0 -0 -0 -1 0 -0 -1 -0 -0 0 -1 -1 -1 -1 -1 -1
4 4 4 3 4 4 4 3 3 3 3 3 3 3 3 3 3 3 2 2 1 1 1 0 -0 -1 -0 0 0 -0 0 0 2 2 1 1 1 1 0 0 0 -0 -1
4 4 4 4 3 3 4 4 3 3 3 3 3 3 3 3 3 2 2 2 2 1 0 0 1 1 1 1 1 1 1 1 2 1 -0 1 1 1 1 1 1 0 0
3 3 3 3 3 3 3 3 3 2 2 2 2 2 2 1 1 1 1 1 1 0 0 0 1 1 0 -0 1 1 1 1 1 1 0 0 -0 -1 0 1 0 0 -0
3 3 3 3 3 3 3 3 3 3 3 2 2 2 2 1 1 1 1 1 1 1 1 0 0 0 1 0 0 0 -0 -0 -0 0 -1 -1 -1 -1 -1 -1 -1 -1 -1
2 2 2 2 2 2 3 3 2 2 2 2 2 2 2 1 1 1 1 0 1 0 0 1 -0 0 -0 -0 -0 -0 -1 -1 -1 -1 -1 -2 -2 -2 -2 -2 -2 -2 -2

GFSMA_700_temp_099.txt.gz
Temp
5 4 4 4 4 4 3 3 3 3 1 1 2 2 2 2 1 4 4 4 4 4 4 4 4 4 4 4 3 4 3 3 3 3 3 3 3 3 3 3 3 3 3
5 5 4 4 4 3 3 3 2 2 2 2 2 2 2 3 3 2 5 4 4 4 4 4 4 4 4 4 3 3 3 3 3 3 3 3 3 3 3 3 3 3 3
5 4 4 3 3 3 3 2 3 2 2 1 1 2 3 3 3 3 5 4 4 4 4 4 4 4 3 3 3 3 3 3 3 3 3 3 3 3 3 3 3 3 3
5 4 4 2 3 3 3 2 2 2 1 1 1 2 2 2 3 3 4 4 4 4 3 4 4 3 3 3 3 3 3 3 3 3 3 3 2 3 2 3 2 2 2
5 4 3 3 3 3 2 2 2 2 1 1 1 2 3 2 3 3 3 4 3 3 3 3 3 3 3 3 3 3 3 3 3 3 2 2 2 2 2 2 2 2 2
4 3 3 2 2 3 2 2 2 2 1 1 1 2 2 2 2 3 3 3 3 3 3 3 3 3 2 2 2 2 2 2 2 2 2 2 2 2 2 2 2 2 1
4 4 4 3 2 2 2 1 2 2 1 1 1 1 1 1 1 2 2 2 3 3 3 3 3 2 2 2 2 2 2 2 2 2 2 2 2 1 1 1 1 1 1
4 3 3 2 2 1 2 1 1 2 2 1 1 2 1 1 2 2 2 2 2 3 3 3 2 2 2 2 2 2 2 2 1 1 1 1 1 1 1 1 1 1 1
3 3 2 2 1 2 2 1 2 2 1 1 1 2 1 1 1 2 2 1 2 2 2 2 2 2 2 2 2 2 2 1 1 1 1 1 1 1 1 1 1 1 0
4 4 2 2 1 1 1 1 2 1 1 1 1 1 1 1 1 1 1 1 1 2 2 2 2 1 1 2 2 1 1 1 1 1 0 1 0 0 0 1 0 0 0
5 4 3 2 2 2 2 2 2 1 1 1 2 1 1 0 -0 -1 1 1 1 1 1 1 1 1 1 1 1 1 0 0 0 -0 0 0 0 0 0 0 0 -0 -0
4 4 2 2 2 1 1 2 1 0 1 1 1 1 1 1 1 -0 -1 0 0 0 0 0 0 1 1 1 1 1 0 -1 -1 -1 -1 -2 -2 -1 -1 -0 -0 -1 -1
4 3 2 2 2 2 1 1 0 -0 1 1 1 0 0 1 0 -1 -1 -1 -1 -1 -0 -0 -0 -0 0 0 0 -0 -1 -2 -1 -1 -2 -2 -2 -2 -2 -2 -1 -1 -1
4 3 2 2 1 1 1 1 0 1 -0 -0 -0 0 0 -0 -0 -2 -2 -2 -2 -2 -2 -1 -1 -0 -0 -1 -1 -1 -2 -2 -2 -1 -2 -2 -2 -2 -2 -2 -1 -1 -1
4 4 3 2 1 1 0 0 1 1 0 0 0 -0 -0 -0 -0 -1 -1 -2 -2 -2 -2 -2 -2 -1 -1 -1 -1 -2 -2 -1 -1 -2 -2 -2 -2 -1 -1 -2 -2 -2 -1
4 4 3 2 2 2 1 1 1 1 1 1 0 1 0 0 0 -0 -1 0 -1 -1 -1 -2 -2 -2 -1 -1 -1 -1 -1 -1 -1 -1 -1 -1 -1 -1 -1 -1 -1 -1 -1
5 4 4 3 3 2 2 1 1 1 1 1 1 1 1 1 1 0 -1 -1 -0 -1 -1 0 -0 -1 -1 -1 -1 -1 -1 -1 -1 0 0 -0 -0 -1 -1 -1 -1 -1 -1
5 4 4 3 3 2 2 2 1 1 1 1 1 1 1 0 0 0 0 1 0 0 -0 0 0 0 -1 -1 -1 -1 -0 -1 -0 0 0 -0 -1 -1 -1 -1 -1 -0 -1
4 4 4 4 2 2 1 2 2 2 1 1 1 1 1 1 1 1 0 0 0 -0 -0 -1 1 -0 0 0 0 0 0 0 0 0 0 0 -0 -1 -1 -1 -1 -1 -1
5 4 4 4 3 2 2 2 2 2 1 2 1 1 1 0 1 -0 -1 -1 0 -0 0 0 1 1 1 1 1 1 1 1 1 1 1 1 1 1 1 -0 -1 -1 -1
4 4 4 3 3 2 3 3 2 2 2 2 2 1 1 0 0 -0 -0 1 0 0 0 0 0 1 1 1 1 1 1 1 1 0 0 0 -0 -0 -0 0 1 1 0
4 4 4 3 3 4 4 4 3 3 2 2 2 1 1 1 1 0 0 1 1 1 1 0 0 0 1 1 1 1 0 0 0 -1 -0 0 0 0 0 0 -0 -0 -0
4 4 4 3 3 3 3 3 3 2 2 1 1 2 1 2 3 3 2 2 2 1 0 0 0 0 -0 1 0 0 -0 -1 -1 -0 -1 -1 -0 -0 -1 -1 -0 -0 -0
3 3 3 3 3 4 3 3 2 1 1 1 1 1 1 1 1 1 1 1 1 1 1 1 1 0 0 0 -1 -0 -0 -0 -1 -1 -1 -0 -1 -1 -1 -1 -1 -1 -0
1 1 1 1 1 2 2 1 1 1 1 1 1 1 1 1 1 1 1 1 1 1 0 1 1 0 0 0 -0 -0 0 -0 -0 -0 -0 -1 -1 -1 -1 -2 -1 -2 -2
0 0 0 1 0 0 1 1 1 1 1 1 1 0 1 1 1 1 1 1 1 0 -0 -0 0 0 -0 -1 -1 -0 -1 -0 -0 -1 -1 -1 -1 -2 -2 -2 -2 -3 -3

GFSMA_700_temp_105.txt.gz
Temp
7 7 6 5 5 4 4 4 4 3 3 3 3 2 1 1 3 3 3 4 4 4 5 5 5 5 5 5 5 5 4 4 4 4 4 4 4 4 4 3 3 3 3
7 6 6 6 5 4 4 4 4 3 3 3 2 2 2 2 2 2 3 3 4 4 4 5 5 5 5 5 5 4 4 4 4 4 4 3 3 3 3 3 3 3 3
7 6 6 6 5 5 4 3 3 3 3 3 2 2 1 1 2 2 3 4 4 4 4 5 5 5 5 5 5 4 4 4 4 3 3 3 3 3 3 3 3 3 3
6 6 6 6 5 5 4 4 3 3 3 3 3 2 1 2 2 2 3 3 4 4 4 4 4 5 5 5 5 4 4 4 3 3 3 3 3 3 3 3 3 3 3
6 6 6 5 5 5 4 3 2 3 3 2 2 2 1 2 2 3 3 3 3 4 4 4 4 4 4 4 4 4 4 4 3 3 3 3 3 3 3 3 2 2 2
6 6 6 5 5 5 4 3 3 3 2 2 2 1 1 2 1 2 2 3 3 4 4 4 4 4 4 4 4 4 4 3 3 3 2 2 2 2 2 2 2 2 2
6 6 6 6 5 5 4 3 2 2 2 2 2 1 1 1 1 1 2 3 3 4 4 4 4 4 4 4 4 3 3 3 2 2 2 2 2 2 2 1 1 1 1
6 6 6 6 5 5 4 3 3 2 2 2 2 2 2 1 0 0 2 3 3 3 4 4 4 3 3 3 3 3 3 2 2 2 2 2 2 2 1 1 1 1 1
6 6 6 6 5 5 4 4 3 3 2 2 2 2 1 1 1 1 2 3 3 3 3 3 3 3 3 3 3 3 3 2 2 2 2 2 2 1 1 1 1 0 1
7 6 6 6 5 4 4 3 3 2 2 2 2 2 1 2 1 1 2 2 3 3 4 3 3 3 3 3 3 2 2 2 2 2 1 2 1 1 1 0 0 -0 -1
6 6 6 6 5 4 4 3 2 2 1 1 1 2 1 1 -0 -0 1 1 2 3 3 3 3 2 3 2 2 2 2 2 1 1 1 1 0 0 -0 -1 -1 -1 -2
6 6 6 6 5 4 3 3 2 2 1 1 1 1 1 1 0 -1 -0 0 1 1 1 2 2 2 2 2 2 2 1 2 1 2 1 1 1 -0 -1 -2 -2 -2 -3
6 6 6 6 5 4 3 2 2 1 2 1 1 1 1 0 0 -1 -1 -0 0 1 1 1 0 0 1 1 1 1 2 1 1 1 0 0 -0 -1 -1 -1 -2 -2 -2
6 6 6 5 4 4 2 2 1 1 1 1 1 2 1 0 0 -0 -0 0 0 0 0 1 -0 -1 -0 0 0 0 0 0 0 -0 -0 -1 -2 -2 -2 -2 -2 -2 -2
6 6 6 6 4 4 2 2 2 1 1 1 1 1 1 1 -0 -0 -1 -0 0 1 1 0 -0 -1 -1 -1 -1 -1 -1 -1 -1 -1 -1 -2 -2 -2 -2 -2 -2 -2 -2
6 6 6 6 4 4 2 2 1 1 1 1 1 1 0 0 -0 -1 -1 -1 -1 -0 -1 -1 -0 -0 0 -0 -1 -1 -1 -1 -1 -1 -1 -2 -1 -1 -2 -1 -2 -2 -2
6 6 6 6 5 4 3 2 2 1 1 0 1 1 0 -0 -0 -1 -1 -1 -1 -1 -0 -0 -0 -0 -0 -0 -1 -0 -0 -0 -1 -1 -1 -1 -1 -1 -2 -2 -2 -2 -2
6 6 6 5 5 4 4 1 1 1 1 2 1 0 0 0 0 0 -0 -0 -0 0 0 -0 -0 -1 -1 -1 -0 -0 -0 -0 -1 0 0 -0 -1 -1 -1 -1 -1 -1 -1
6 6 5 5 5 4 4 2 1 1 1 1 1 1 0 0 0 -0 1 0 -0 -0 -0 -0 0 -1 -1 -1 -1 -1 -1 -1 -1 -1 -1 -1 -0 0 -0 -0 -0 -0 -1
5 5 5 5 5 5 4 2 1 1 1 1 1 1 0 1 1 1 0 1 -0 -0 -0 -0 -0 -0 -0 -0 -1 -1 -0 -1 -0 -0 -0 -0 -0 -0 0 0 0 -0 -0
4 4 4 4 5 5 5 3 3 2 1 1 1 1 1 0 1 0 0 0 0 -0 -0 -0 -0 -0 -0 -1 -1 -1 -0 0 0 0 1 0 0 0 0 -0 -0 -0 -0
3 4 5 5 4 5 4 3 2 2 1 1 1 1 1 0 1 1 0 -0 -0 -0 -1 0 -1 -1 -1 -0 -0 -1 -0 0 -1 -0 0 0 0 -0 -1 -0 -1 -1 -1
3 3 3 3 4 4 4 3 2 1 1 1 0 0 1 1 0 -0 0 -0 -0 -1 -1 -1 -1 -0 -0 0 0 -0 -1 -0 -1 -1 -1 -0 -1 -1 -1 -1 -1 -2 -1
2 1 1 1 1 2 3 3 2 1 0 -0 -0 1 0 0 0 0 -0 -1 -1 -1 -1 -1 -1 -1 -0 0 0 0 0 -0 -0 -0 -0 -1 -1 -1 -1 -2 -1 -2 -2
1 1 0 1 0 -0 0 -0 -0 -1 -1 -0 0 0 1 0 -0 -0 -1 -0 -0 -0 -1 -1 -0 -0 -0 0 -0 -0 -1 -0 0 -0 -0 -0 -1 -1 -0 -0 -1 -1 -2
1 -0 1 -1 0 0 0 -0 0 0 -0 -1 -1 -0 -0 -1 -1 -0 -1 -1 -1 -1 -0 -0 -0 -0 -0 -1 -1 -0 -1 -0 0 -0 -0 -1 -1 -1 -1 -2 -2 -2 -2

GFSMA_700_temp_108.txt.gz
Temp
7 7 7 6 6 6 5 4 4 3 3 3 2 2 2 2 2 2 2 3 3 4 4 5 5 5 5 5 5 5 5 5 4 4 4 4 3 3 3 3 3 3 3
7 7 7 7 6 6 5 5 4 4 3 3 2 2 2 2 2 2 2 3 3 3 4 4 5 5 5 5 5 5 5 5 4 4 4 4 3 3 3 3 3 3 3
7 7 7 7 6 6 5 5 4 4 3 3 3 2 2 2 2 2 2 2 3 3 4 4 5 5 5 5 5 5 4 4 4 4 4 3 3 3 3 3 3 3 2
7 7 7 6 6 6 6 5 4 4 3 3 2 2 2 3 2 2 2 2 3 3 4 4 4 4 4 5 5 4 4 4 4 3 3 3 3 3 3 2 2 2 2
7 6 6 6 6 6 6 5 4 4 3 3 2 2 2 3 2 2 2 2 2 3 4 4 4 4 4 4 4 4 4 4 3 3 3 3 3 3 3 2 2 2 2
7 6 6 6 6 6 5 5 4 4 3 2 2 2 2 2 2 1 2 2 2 3 4 4 4 4 4 4 4 4 4 4 3 3 3 3 2 2 2 2 2 2 2
7 6 6 6 6 5 5 5 4 3 3 2 2 1 2 2 1 1 1 1 2 3 3 4 4 4 4 4 4 4 3 3 3 3 2 2 2 2 2 2 2 2 1
7 6 6 6 5 5 5 5 4 3 3 2 2 2 2 1 1 1 1 1 2 3 3 3 4 4 3 4 4 3 3 3 2 2 2 2 2 2 2 1 1 1 1
7 6 6 6 5 5 5 5 4 3 3 2 2 2 1 1 1 1 1 1 2 2 3 3 3 3 3 3 3 3 3 3 2 2 2 2 2 1 1 1 1 0 0
7 7 6 6 5 5 5 4 4 3 3 3 2 2 1 2 2 1 1 0 1 2 3 3 3 3 3 3 3 3 2 2 2 2 2 2 2 1 1 1 1 0 -0
7 7 6 6 6 5 5 4 4 3 3 2 2 2 1 1 2 2 1 1 2 3 2 3 3 3 3 3 3 2 2 2 2 2 1 2 1 1 0 0 -0 -1 -1
7 7 6 6 6 5 4 4 3 3 2 2 2 2 1 2 2 2 1 -0 1 2 2 2 2 2 2 2 2 2 2 1 1 1 1 2 1 1 0 0 -1 -2 -2
7 7 6 6 6 5 4 3 3 2 2 2 2 1 1 1 2 2 1 0 -1 0 1 2 1 1 1 1 1 1 1 1 1 1 1 1 1 0 -0 -1 -2 -2 -2
7 6 6 6 6 5 4 3 3 2 2 2 1 2 1 1 1 1 1 1 -0 -1 -0 1 2 1 1 1 1 1 1 1 1 1 1 0 -0 -0 -1 -2 -2 -3 -2
6 6 6 6 6 5 4 4 3 2 2 1 1 1 1 1 1 1 0 0 -0 -0 -0 0 1 0 0 -0 -1 -2 -1 -0 -0 -0 -0 -1 -1 -1 -2 -2 -2 -2 -2
6 6 6 6 6 5 4 4 3 1 2 2 2 1 1 1 1 1 0 0 -1 -1 -1 -1 -1 -1 -1 -2 -1 -1 -1 -1 -1 -1 -1 -1 -2 -1 -1 -2 -2 -2 -2
5 6 6 6 6 5 4 4 3 2 2 1 1 1 2 1 1 -0 0 0 -0 -1 -1 -1 -1 -1 -1 -1 -1 -1 -1 -1 -1 -1 -1 -1 -1 -1 -1 -1 -2 -1 -2
5 5 6 6 6 5 4 3 2 2 2 1 1 1 1 1 1 0 -0 -0 -0 0 -1 0 -1 -1 -1 -1 -1 -1 -1 -1 -1 -1 -1 -1 -1 -1 -1 -0 -0 -1 -1
5 4 5 5 5 5 4 3 2 1 1 2 2 1 0 0 0 0 0 0 -0 -0 0 -0 -0 -0 -0 -0 -0 -0 -1 -1 -1 -2 -2 -0 -0 -1 -1 -0 -0 -0 -0
4 4 4 5 5 5 4 3 2 2 2 1 1 1 1 0 0 0 0 0 -0 -0 -0 -0 -0 -0 -1 -1 -1 -1 -1 -1 -1 -2 -1 -1 -1 -1 -1 -0 -0 -0 -0
3 3 3 5 5 5 5 4 2 1 1 1 1 1 1 0 -0 0 0 0 -0 0 -0 -0 -0 -0 -0 -1 -1 -1 -1 -1 -2 -2 -1 -1 -0 -1 -0 -0 -1 -0 -1
3 3 3 4 5 5 4 4 1 1 1 0 1 0 1 0 0 0 1 0 -0 0 0 -0 -0 -0 -0 -0 -1 -1 -1 -1 -1 -1 -1 -0 0 -0 -0 -0 -0 -0 -0
2 2 3 4 4 4 4 3 2 1 1 1 1 1 1 0 0 0 0 0 1 0 -0 -0 -0 -1 -1 -1 -1 -1 -2 -1 -0 -1 -1 -1 -1 -1 -1 -0 -0 -1 -1
1 1 1 2 3 4 3 3 2 0 0 0 1 1 0 1 1 0 0 -1 -1 -1 -1 -1 -1 -1 -1 -1 -1 -1 -0 -1 -1 -1 -1 -1 -1 -1 -1 -1 -1 -1 -1
0 1 1 1 2 3 3 2 1 -0 -0 0 -0 0 0 0 0 0 -0 -0 -0 -0 -0 -1 -0 -0 -2 -1 -1 -1 -1 -1 -1 -1 -1 -1 -1 -1 -1 -1 -1 -1 -1
-0 0 0 1 1 0 1 0 0 0 -0 -1 -0 -0 -0 -1 -1 -1 -1 -0 0 0 -0 -1 -1 -0 -1 -1 -1 -1 -1 -1 -1 -1 -1 -2 -2 -1 -1 -1 -1 -1 -1

GFSMA_700_temp_111.txt.gz
Temp
7 7 7 6 6 5 5 5 4 4 4 3 3 3 3 2 3 2 2 3 2 2 3 4 4 4 5 5 5 5 5 5 4 4 4 4 4 3 3 3 3 3 3
7 7 7 6 6 5 5 5 4 4 3 3 3 2 2 2 3 3 2 2 2 2 3 4 4 4 5 5 5 5 4 4 4 4 4 4 3 3 3 3 3 3 3
7 7 7 7 6 6 5 5 4 4 4 3 3 3 2 3 3 2 2 2 2 1 2 3 4 4 4 4 4 4 4 4 4 4 4 3 3 3 3 3 3 3 3
7 7 7 7 6 6 6 5 5 4 4 4 3 3 3 3 3 2 2 1 1 1 2 3 3 4 4 4 4 4 4 4 4 4 4 3 3 3 3 3 3 2 2
7 7 6 6 6 6 6 5 5 5 4 3 3 3 2 2 3 3 2 1 2 1 2 2 3 4 4 4 4 4 4 4 3 3 3 3 3 3 3 2 2 2 2
7 7 6 6 6 6 6 6 5 5 4 3 3 2 2 2 2 2 2 2 1 1 1 3 3 4 4 4 4 4 4 3 3 3 3 3 3 2 2 2 2 2 2
7 7 6 6 6 6 5 5 5 5 4 3 2 2 2 2 2 2 2 2 1 1 2 2 3 4 3 4 3 3 3 3 3 3 3 3 2 2 2 2 2 2 1
7 7 7 6 6 5 5 5 5 5 4 3 2 2 2 2 2 1 2 1 0 1 1 2 3 3 3 3 3 3 3 3 3 2 2 2 2 2 2 1 1 1 1
6 7 7 6 6 5 5 5 5 5 4 3 2 2 2 2 2 2 1 1 0 0 0 2 3 3 3 3 3 3 3 3 3 2 2 2 2 2 2 1 1 1 1
6 6 6 6 6 5 5 5 5 4 4 3 2 2 2 2 2 1 1 1 1 0 1 2 3 3 3 3 3 3 3 3 2 2 2 2 2 2 2 1 1 1 1
6 6 6 6 6 6 5 5 5 4 4 3 3 2 2 2 2 1 1 2 1 1 0 2 2 2 3 3 3 3 3 2 2 2 2 1 1 1 1 1 1 0 -0
5 6 6 6 6 6 5 5 5 4 3 3 2 2 2 2 2 1 1 1 1 1 0 2 2 2 2 2 2 2 2 2 2 1 1 1 1 1 1 1 0 -0 -1
6 6 6 6 6 6 5 5 5 5 3 3 2 2 1 2 2 2 2 1 1 1 1 1 1 1 1 1 1 2 2 2 1 1 1 1 1 1 1 0 -0 -1 -1
6 5 6 6 6 6 6 6 5 5 3 3 2 2 2 1 2 2 1 2 1 1 1 1 1 1 1 1 1 1 1 1 1 1 1 1 1 0 0 -0 -0 -1 -1
5 5 5 6 6 6 6 6 6 5 4 2 3 2 2 2 1 2 1 1 1 1 1 0 1 1 1 0 0 -0 0 0 0 -0 0 0 0 -0 -0 -1 -1 -1 -2
4 4 5 5 6 6 6 6 6 5 4 2 1 2 2 1 2 1 1 1 1 1 0 -0 -1 -0 -0 -0 -0 -1 -0 -0 -1 -1 -1 -1 -1 -1 -1 -1 -1 -2 -2
4 4 4 5 5 5 6 6 6 5 4 1 2 2 1 1 1 1 1 1 1 0 0 -0 -1 -1 -1 -1 -1 -1 -1 -1 -2 -2 -2 -1 -1 -1 -1 -1 -1 -1 -1
3 3 4 4 5 5 5 6 5 5 3 1 1 1 2 1 1 1 1 1 1 -0 0 -1 -1 -1 -2 -1 -1 -1 -1 -1 -2 -1 -1 -1 -1 -1 -1 -1 -1 -1 -1
3 3 4 4 4 4 5 6 5 5 4 1 2 1 1 1 1 0 0 0 -0 -0 -0 -0 -0 -1 -1 -1 -1 -1 -1 -1 -1 -1 -1 -1 -1 -1 -1 -1 -1 -1 -1
3 3 3 3 4 4 5 5 5 5 4 1 1 2 1 1 2 1 0 0 -0 -0 0 0 -0 -0 -1 -1 -1 -1 -1 -1 -1 -1 -1 -1 -1 -2 -2 -1 -1 -1 -0
3 3 3 3 3 4 5 5 5 5 4 3 1 1 2 1 1 0 -0 0 0 -0 -0 -0 -0 -1 -0 -1 -1 -0 -1 -1 -1 -1 -1 -1 -2 -1 -1 -1 -0 -1 -1
3 3 1 2 3 4 4 4 5 4 4 3 1 0 1 1 1 1 0 0 -0 -0 0 -0 1 -0 -0 -1 -0 -1 -1 -1 -1 -1 -2 -2 -2 -2 -1 -1 -1 -1 -1
1 1 1 1 2 2 3 3 4 3 3 2 1 1 1 0 1 0 1 0 -0 0 0 -0 0 -0 -1 -1 -1 -0 -1 -1 -1 -1 -1 -1 -1 -1 -1 -0 -1 -1 -1
0 2 1 1 2 2 2 3 3 2 2 0 -0 0 1 0 0 1 0 0 -0 0 0 0 0 -0 -0 -0 -1 -1 -1 -1 -1 -1 -1 -1 -1 -1 -1 -1 -1 -1 -1
-0 -0 -0 0 1 1 1 1 2 2 0 1 0 1 -0 1 -0 0 0 0 0 -0 0 -0 -0 -0 -1 -2 -1 -1 -1 -1 -1 -1 -1 -2 -2 -1 -1 -2 -2 -2 -2
-1 -1 0 0 -0 0 0 1 -1 -0 -1 -0 -1 0 0 0 0 -0 -1 -1 0 -0 -0 -1 -1 -1 -0 -1 -0 -1 -1 -1 -1 -1 -2 -2 -1 -2 -2 -2 -3 -2 -2

GFSMA_700_temp_114.txt.gz
Temp
8 7 7 6 6 5 4 4 4 3 3 3 3 4 3 3 3 3 2 2 2 3 3 3 3 4 4 4 4 5 5 4 4 4 4 4 4 3 3 3 3 3 3
7 7 7 7 6 5 5 4 4 3 3 3 3 3 3 3 3 3 2 2 2 2 2 2 3 3 4 4 4 4 5 4 4 4 4 4 4 3 3 3 3 3 3
7 7 7 7 6 6 5 5 4 4 4 4 4 3 3 3 3 3 3 2 2 2 2 2 2 3 4 4 4 4 4 4 4 4 4 3 3 3 3 3 3 3 3
7 7 7 7 6 6 6 5 5 4 4 4 3 3 3 3 3 3 3 2 2 2 1 2 2 3 3 4 4 4 4 4 4 4 4 3 3 3 3 3 3 2 2
7 7 7 7 6 6 6 5 5 5 4 4 3 3 3 3 3 3 2 2 1 2 1 0 1 2 3 4 4 4 4 4 4 4 3 3 3 3 3 3 2 2 2
7 7 7 6 6 6 6 5 5 5 4 4 3 3 3 3 3 2 2 2 2 2 2 0 1 1 2 3 4 4 3 3 3 3 3 3 3 3 2 2 2 2 2
7 7 7 6 6 6 6 5 5 5 5 4 3 3 3 3 3 2 2 2 2 2 1 0 1 2 2 3 3 3 3 3 3 3 3 3 3 2 2 2 2 1 1
6 6 6 6 6 6 6 5 5 5 5 4 3 3 2 3 3 3 3 2 2 2 1 0 1 2 2 3 3 3 3 3 3 3 3 2 2 2 2 2 2 2 1
6 6 6 6 6 6 5 5 5 5 5 4 4 2 2 3 3 2 2 2 1 1 1 1 1 2 2 3 3 3 3 3 2 2 2 2 2 2 2 2 2 1 1
6 5 6 6 6 6 6 5 5 5 5 5 4 3 3 2 2 2 2 2 2 1 1 0 0 2 2 3 3 3 3 3 3 2 2 2 2 2 2 2 1 1 1
5 5 6 5 6 6 6 5 5 5 5 5 4 4 3 2 2 1 1 2 1 1 1 0 0 1 2 3 3 3 3 3 3 2 2 2 2 1 1 1 1 1 1
5 5 5 5 5 6 6 6 5 5 5 5 4 4 3 2 2 2 2 1 1 1 1 1 1 0 1 2 2 2 2 2 2 2 2 2 1 1 1 1 1 1 0
5 6 5 5 5 5 6 5 5 5 5 5 4 3 3 3 2 2 2 1 1 2 1 1 0 0 1 2 2 2 2 2 2 2 2 1 1 1 1 1 1 0 0
5 5 5 5 5 5 6 6 5 5 5 5 4 3 2 2 2 1 1 2 1 2 1 1 1 0 -0 1 1 1 1 2 2 2 1 1 1 1 1 1 1 0 -0
5 5 5 5 5 5 5 5 5 5 5 5 4 3 2 3 2 2 2 2 2 2 1 1 1 1 1 1 1 1 1 1 1 1 1 1 1 1 1 0 0 -0 -1
5 5 4 4 4 4 5 5 5 5 5 5 4 4 3 2 2 2 2 2 2 2 1 1 1 1 -0 -1 1 1 -0 -0 0 0 0 0 0 0 0 -0 -1 -1 -1
5 4 4 4 4 4 4 4 5 5 5 5 5 4 3 2 2 2 1 2 2 1 2 1 0 -0 0 -2 -0 -1 -1 -1 -0 -1 -1 -1 -1 -1 -1 -1 -1 -1 -1
5 4 4 4 4 4 4 4 5 5 5 5 5 4 3 2 2 2 1 1 1 1 1 2 0 -0 -0 -1 -1 -1 -1 -1 -1 -1 -1 -1 -2 -2 -2 -1 -1 -1 -1
4 3 3 3 3 3 3 4 4 4 5 5 5 4 3 2 2 1 2 1 1 1 1 0 0 -0 -0 -1 -1 -1 -1 -1 -1 -2 -1 -1 -1 -1 -3 -1 -1 -2 -1
3 3 3 2 2 3 2 3 3 4 5 5 5 4 3 3 2 2 1 1 1 1 1 0 -0 -0 -1 -1 -0 -1 -1 -1 -1 -1 -1 -1 -1 -1 -1 -1 -2 -1 -1
2 2 2 2 2 2 2 2 2 3 4 4 4 4 3 2 2 2 1 1 1 1 0 -1 -0 -0 -1 -1 -1 -1 -1 -1 -1 -1 -1 -1 -1 -1 -1 -2 -2 -2 -2
1 1 2 2 2 2 3 1 1 2 3 3 3 3 2 2 2 1 1 1 1 0 -0 -0 -0 -0 -0 -0 -1 -0 -1 -1 -1 -1 -1 -1 -1 -1 -1 -2 -2 -2 -1
1 1 1 2 0 2 2 1 1 2 3 3 3 3 2 1 2 2 1 1 0 0 -0 -0 -0 -0 -0 -0 -1 -0 -1 -1 -1 -1 -1 -1 -1 -1 -1 -1 -1 -1 -1
0 -1 1 0 1 0 0 1 1 1 2 2 2 2 0 0 1 1 -0 0 0 0 -0 -0 0 -0 0 -0 -0 -0 -1 -1 -1 -1 -1 -1 -1 -1 -1 -1 -1 -1 -1
-1 -0 -0 -0 -0 -1 0 -0 0 1 1 1 1 0 -0 0 -0 -0 0 -0 0 -0 -0 -0 -0 -0 -0 -1 -0 -1 -1 -1 -1 -1 -1 -2 -2 -1 -2 -1 -1 -2 -2
-2 -2 -1 -1 -1 0 -1 -1 0 -1 -0 -1 -1 -1 -0 -0 0 -0 -0 -0 -1 0 -0 -0 -0 -0 -0 -1 -1 -1 -1 -1 -1 -1 -1 -2 -1 -1 -2 -2 -2 -2 -2

GFSMA_700_temp_117.txt.gz
Temp
8 8 7 6 6 6 5 5 4 4 4 4 4 4 4 3 3 3 3 2 2 2 2 2 2 3 3 4 4 4 4 4 4 4 4 4 4 4 3 3 3 3 3
8 8 7 7 6 6 5 5 4 4 4 4 3 3 4 3 3 3 3 3 2 2 2 2 2 2 3 4 4 4 4 4 4 4 4 4 4 3 3 3 3 3 3
7 7 7 7 6 6 5 5 5 4 5 4 4 3 3 3 3 2 3 3 2 2 1 3 1 2 3 3 4 4 4 4 4 4 4 4 4 3 3 3 3 3 3
7 7 7 7 6 6 6 6 5 5 5 4 4 4 3 3 3 3 2 3 3 2 2 2 1 1 2 3 4 4 4 4 4 4 4 4 3 3 3 3 3 3 3
7 7 7 7 7 6 6 6 6 5 5 4 4 4 4 3 3 3 2 2 2 2 2 2 2 1 1 2 3 3 4 4 4 3 3 3 3 3 3 3 3 2 2
7 7 7 7 7 6 6 6 6 5 5 4 4 4 4 4 3 3 3 2 2 2 2 2 2 1 0 2 3 3 4 4 3 3 3 3 3 3 3 3 2 2 2
7 7 7 6 6 6 6 6 5 5 5 5 4 4 4 4 4 3 3 2 3 2 2 2 2 0 0 1 3 3 3 3 3 3 3 3 3 2 2 2 2 2 2
6 7 7 6 6 6 6 6 5 5 5 5 4 4 4 4 4 3 3 3 2 2 2 2 1 1 1 1 2 3 3 3 3 3 3 2 2 2 2 2 2 2 2
6 6 6 6 6 6 6 6 5 5 5 5 4 4 4 5 4 3 3 3 2 2 2 1 1 1 0 2 2 3 3 3 3 3 3 3 2 2 2 2 2 2 1
6 6 6 6 6 6 6 6 5 5 5 5 5 4 4 4 4 4 4 3 2 2 2 2 1 1 1 1 2 3 3 3 3 3 3 2 2 2 2 2 2 1 1
6 6 5 5 6 6 6 6 5 5 5 5 4 4 4 4 3 4 2 4 3 2 2 2 1 1 1 1 1 2 3 3 3 3 3 2 2 2 2 2 1 1 1
6 5 5 5 5 5 5 5 5 5 5 5 5 5 4 4 4 3 3 2 2 2 1 1 2 1 1 0 2 2 2 3 3 2 2 2 2 2 2 1 1 1 1
6 6 6 5 5 5 5 5 5 5 5 5 5 5 4 4 4 3 3 1 1 1 1 1 1 1 1 1 -0 1 1 2 2 2 2 2 2 2 1 1 1 1 1
6 6 6 4 4 5 5 5 5 5 5 5 5 5 5 4 4 3 2 1 1 2 1 2 1 1 1 1 1 0 1 2 2 2 2 2 2 1 1 1 1 1 1
6 6 5 5 4 5 5 5 5 5 5 5 5 5 5 5 4 3 3 2 1 1 1 2 2 2 1 0 0 -0 0 1 2 2 1 1 1 1 1 1 1 0 0
5 5 5 5 4 4 4 4 4 5 5 5 5 5 5 5 4 3 3 2 2 1 2 2 2 1 1 1 0 -1 0 0 1 1 1 1 0 0 0 0 0 0 0
4 4 4 4 4 4 4 4 4 4 4 4 5 5 5 4 4 3 2 2 2 1 1 2 1 1 1 1 0 -1 -1 -0 0 0 1 0 0 0 0 0 0 0 0
4 4 4 4 4 4 3 3 3 4 3 4 4 4 4 4 4 3 2 2 2 1 1 2 2 2 0 1 -0 -0 -1 -2 -1 -1 1 1 0 -0 -0 -0 -1 -1 -0
5 5 4 4 4 3 3 3 3 3 3 3 3 3 4 4 4 3 2 2 2 1 1 2 1 1 0 1 -0 -0 -1 -3 -1 -1 0 -0 -0 -1 -1 -1 -2 -2 -2
4 4 4 4 3 3 3 2 2 2 2 2 3 2 3 4 4 3 3 2 2 2 1 1 1 1 0 -0 -0 -0 -1 -2 -2 -1 -1 -1 -1 -1 -2 -2 -2 -2 -2
2 1 2 2 2 2 3 2 2 2 2 2 1 2 3 4 4 3 3 2 1 1 1 1 0 1 0 -0 -0 -0 -0 -2 -2 -2 -1 -1 -1 -1 -2 -1 -1 -1 -1
0 0 0 1 2 1 1 2 2 2 2 2 1 2 2 3 3 2 2 2 1 1 1 0 0 0 -0 -0 -0 -1 -1 -1 -1 -1 -1 -1 -1 -1 -1 -1 -1 -1 -1
0 0 0 1 1 1 1 2 1 2 1 -0 -0 0 1 2 2 2 2 1 1 1 1 1 0 1 -0 -0 -1 -1 -1 -1 -1 -1 -1 -1 -1 -1 -1 -1 -1 -1 -1
-1 -1 -0 0 0 1 1 1 0 1 0 -0 -0 -0 1 2 2 1 2 1 1 0 1 0 0 0 -0 -0 -0 -1 -1 -1 -1 -1 -1 -1 -1 -1 -1 -1 -1 -1 -1
-1 -1 -1 -1 -0 -0 -0 0 -0 -0 -1 -1 -0 0 1 1 1 1 1 0 0 0 0 0 0 -0 -0 -0 -0 -1 -1 -1 -1 -1 -1 -1 -1 -1 -1 -1 -1 -1 -1
-3 -3 -2 -2 -1 -1 -1 -1 -1 -1 -0 -1 -1 -1 -0 0 0 0 -0 0 -0 -0 -0 -0 1 -0 -0 -0 -0 -0 -1 -1 -1 -1 -1 -1 -1 -1 -1 -1 -1 -2 -2

GFSMA_700_temp_123.txt.gz
Temp
8 7 7 7 7 6 6 6 5 5 5 5 5 5 5 5 4 5 4 4 4 3 3 3 2 1 3 3 3 4 4 4 4 4 4 4 4 4 4 4 4 3 3
8 8 7 7 7 7 6 6 6 5 5 4 5 5 5 5 4 4 4 4 4 3 3 3 3 3 2 2 3 3 4 4 4 4 4 4 4 4 4 4 3 3 3
8 8 7 8 7 7 6 6 6 6 5 5 5 5 5 5 4 4 4 4 4 3 3 3 3 3 2 3 3 3 3 4 4 4 4 4 4 4 4 3 3 3 3
7 7 8 7 7 7 7 6 6 6 6 5 5 5 5 5 5 5 4 4 4 3 3 3 3 3 3 2 3 3 3 4 4 4 4 4 4 4 3 3 3 3 3
7 7 7 7 7 7 7 7 6 6 6 6 5 5 5 5 5 5 4 4 3 3 3 3 3 3 3 3 2 2 2 3 4 4 4 4 4 3 3 3 3 3 3
7 7 7 7 7 7 7 7 7 6 6 6 5 6 5 5 5 5 5 5 4 3 3 3 2 3 3 3 2 2 2 3 3 4 4 4 3 3 3 3 3 3 3
7 7 7 7 7 7 7 7 6 6 6 6 6 6 5 5 5 5 5 5 4 4 3 3 3 3 3 2 2 2 2 1 2 3 3 3 3 3 3 3 3 3 2
7 7 7 7 7 7 7 7 7 6 6 6 6 6 6 5 5 5 5 5 5 4 4 3 3 3 3 2 2 2 2 1 2 2 3 3 3 3 3 3 3 2 2
7 7 7 7 7 7 7 7 7 6 6 6 6 6 6 6 4 6 6 5 5 5 4 4 3 3 3 2 2 2 2 1 2 2 3 3 3 3 3 3 3 2 2
7 7 7 7 7 7 6 6 6 6 6 6 6 6 5 5 5 3 6 6 5 5 4 4 3 3 3 2 2 2 1 1 2 2 2 3 3 3 2 3 3 2 2
7 7 7 7 7 6 6 6 6 6 6 6 6 5 5 5 5 5 5 5 5 5 4 4 3 3 3 2 2 2 2 2 2 2 2 2 3 3 2 2 2 2 2
7 7 6 6 6 6 6 6 6 6 6 5 6 5 5 5 5 5 5 5 5 5 5 4 4 3 3 3 2 2 2 2 1 1 1 2 2 2 2 3 2 2 2
6 6 6 6 6 6 6 6 6 6 5 5 5 5 5 5 5 5 5 5 4 4 5 5 4 3 2 2 2 2 2 1 1 1 0 2 2 2 2 3 2 2 2
6 6 6 6 6 6 6 5 5 5 5 5 5 5 5 5 4 5 5 5 5 4 4 6 5 4 2 2 2 1 1 1 1 0 1 1 1 2 2 2 2 2 2
6 6 6 6 6 6 5 5 5 4 3 4 4 4 4 4 4 4 5 5 4 4 4 5 5 3 3 2 2 2 1 1 1 1 0 0 1 2 2 2 2 1 1
5 6 6 6 6 6 5 5 5 4 3 2 3 3 3 3 3 3 4 4 4 3 3 3 5 4 3 2 2 2 1 1 1 1 1 -1 0 1 1 1 1 1 1
4 5 5 6 6 5 5 5 5 4 4 3 2 2 3 2 2 2 3 3 3 3 2 4 4 4 3 3 2 2 1 1 2 1 1 1 -1 0 1 1 1 1 1
4 5 5 6 5 5 5 4 4 3 3 3 2 1 1 1 1 3 2 3 3 3 2 2 4 5 4 3 2 2 2 1 1 1 1 1 -1 0 0 1 1 0 1
5 5 5 4 5 4 4 4 4 4 3 3 2 1 2 2 2 2 2 2 3 3 3 2 3 4 4 3 2 2 2 1 1 1 1 1 -0 0 -1 -0 0 1 1
4 4 4 4 4 4 4 3 4 4 4 4 3 2 2 2 2 2 2 2 2 2 2 3 2 4 3 3 2 2 2 2 1 1 1 1 0 -0 -1 -2 -1 -0 -0
3 3 3 3 3 3 3 3 3 3 3 3 3 2 2 2 2 2 2 2 2 2 1 1 3 3 2 2 2 1 1 1 1 1 1 1 -0 -0 -1 -1 -2 -2 -1
2 2 2 2 3 3 3 3 3 3 3 3 3 3 1 1 3 2 2 2 1 1 1 1 2 2 2 2 2 2 1 1 1 1 1 1 -0 -0 -1 -1 -2 -3 -1
-1 -0 -0 -1 -1 -0 0 0 1 1 1 1 1 1 0 1 1 1 1 1 1 1 1 0 1 2 1 1 1 1 1 1 1 1 0 -0 -0 -1 -1 -1 -1 -1 -2
-1 -1 -1 -1 -0 -0 -0 -0 -0 0 1 1 1 1 1 1 1 1 1 1 1 1 0 0 -0 0 1 1 1 1 0 1 1 0 0 -0 -0 -1 -1 -1 -1 -2 -2
-3 -3 -3 -2 -3 -2 -2 -2 -1 -1 -1 -1 -1 -0 0 1 1 1 1 0 0 0 0 -0 -0 -0 1 1 1 1 1 0 1 0 -0 -0 -0 -1 -1 -1 -1 -1 -2
-3 -3 -3 -3 -3 -3 -3 -3 -3 -3 -2 -1 -1 -1 -1 -1 -1 -0 -0 -0 -0 -0 -0 -0 -0 -0 -0 1 1 1 0 -0 0 -0 -0 -0 -1 -1 -1 -1 -1 -1 -1